Wetterdaten: aktuell Montag, 17.06.2019 19:42
Datum Zeit Temp. 2m Temp. 5cm Temp. -10cm Temp. 2m alt Feuchte A. Luftdruck Regen Wind Richtung Richtung Taupunkt Windchill Windben
17.06.2019 19:42 23,9 C 24,6 C 20,5 C 0,0 C 57 % 1020,4 hPa 0,0 l/m 1,1 km/h (1 Bft) NO 45 14,9 C 23,9 C 0,0 km/h (0 Bft)
17.06.2019 19:40 23,9 C 24,8 C 20,5 C 0,0 C 57 % 1020,4 hPa 0,0 l/m 1,6 km/h (1 Bft) O-NO 67 14,9 C 23,9 C 3,9 km/h (1 Bft)
17.06.2019 19:38 23,9 C 25,1 C 20,5 C 0,0 C 57 % 1020,4 hPa 0,0 l/m 2,4 km/h (1 Bft) N-NO 22 14,9 C 23,9 C 3,9 km/h (1 Bft)
17.06.2019 19:36 24,0 C 25,4 C 20,5 C 0,0 C 56 % 1020,4 hPa 0,0 l/m 2,6 km/h (1 Bft) NO 45 14,7 C 24,0 C 0,0 km/h (0 Bft)
17.06.2019 19:34 24,0 C 25,2 C 20,5 C 0,0 C 56 % 1020,4 hPa 0,0 l/m 2,9 km/h (1 Bft) NO 45 14,7 C 24,0 C 6,2 km/h (2 Bft)
17.06.2019 19:32 24,1 C 25,2 C 20,5 C 0,0 C 56 % 1020,4 hPa 0,0 l/m 3,2 km/h (1 Bft) O 90 14,8 C 24,1 C 6,2 km/h (2 Bft)
17.06.2019 19:30 24,1 C 25,2 C 20,5 C 0,0 C 56 % 1020,4 hPa 0,0 l/m 3,1 km/h (1 Bft) N-NO 22 14,8 C 24,1 C 6,8 km/h (2 Bft)
17.06.2019 19:28 24,1 C 25,3 C 20,5 C 0,0 C 55 % 1020,4 hPa 0,0 l/m 2,7 km/h (1 Bft) N-NO 22 14,5 C 24,1 C 6,8 km/h (2 Bft)
17.06.2019 19:26 24,2 C 25,3 C 20,5 C 0,0 C 55 % 1020,4 hPa 0,0 l/m 2,4 km/h (1 Bft) NO 45 14,6 C 24,2 C 7,7 km/h (2 Bft)
17.06.2019 19:24 24,4 C 25,7 C 20,5 C 0,0 C 55 % 1020,2 hPa 0,0 l/m 2,4 km/h (1 Bft) O-SO 112 14,8 C 24,4 C 7,7 km/h (2 Bft)
17.06.2019 19:22 24,4 C 26,2 C 20,5 C 0,0 C 55 % 1020,2 hPa 0,0 l/m 2,3 km/h (1 Bft) O-NO 67 14,8 C 24,4 C 4,1 km/h (1 Bft)
17.06.2019 19:20 24,4 C 26,4 C 20,5 C 0,0 C 55 % 1020,2 hPa 0,0 l/m 2,6 km/h (1 Bft) NO 45 14,8 C 24,4 C 4,1 km/h (1 Bft)
17.06.2019 19:18 24,5 C 26,8 C 20,5 C 0,0 C 55 % 1020,2 hPa 0,0 l/m 2,9 km/h (1 Bft) N-NW 337 14,9 C 24,5 C 7,5 km/h (2 Bft)
17.06.2019 19:16 24,5 C 27,2 C 20,5 C 0,0 C 55 % 1020,2 hPa 0,0 l/m 3,2 km/h (1 Bft) N-NO 22 14,9 C 24,5 C 7,5 km/h (2 Bft)
17.06.2019 19:14 24,5 C 27,1 C 20,5 C 0,0 C 54 % 1020,2 hPa 0,0 l/m 3,4 km/h (1 Bft) N-NW 337 14,6 C 24,5 C 3,3 km/h (1 Bft)
17.06.2019 19:12 24,5 C 27,1 C 20,5 C 0,0 C 54 % 1020,2 hPa 0,0 l/m 3,5 km/h (1 Bft) N-NO 22 14,6 C 24,5 C 4,4 km/h (1 Bft)
17.06.2019 19:10 24,5 C 27,1 C 20,6 C 0,0 C 54 % 1020,2 hPa 0,0 l/m 3,5 km/h (1 Bft) N-NW 337 14,6 C 24,5 C 11,6 km/h (2 Bft)
17.06.2019 19:08 24,5 C 27,3 C 20,6 C 0,0 C 54 % 1020,2 hPa 0,0 l/m 2,9 km/h (1 Bft) S-SW 202 14,6 C 24,5 C 11,6 km/h (2 Bft)
17.06.2019 19:06 24,5 C 27,2 C 20,6 C 0,0 C 54 % 1020,2 hPa 0,0 l/m 2,3 km/h (1 Bft) N-NO 22 14,6 C 24,5 C 4,4 km/h (1 Bft)
17.06.2019 19:04 24,6 C 27,1 C 20,6 C 0,0 C 54 % 1020,5 hPa 0,0 l/m 2,1 km/h (1 Bft) NO 45 14,7 C 24,6 C 4,1 km/h (1 Bft)
17.06.2019 19:02 24,6 C 27,9 C 20,5 C 0,0 C 53 % 1020,5 hPa 0,0 l/m 2,3 km/h (1 Bft) O-NO 67 14,4 C 24,6 C 4,4 km/h (1 Bft)
17.06.2019 19:00 24,6 C 28,4 C 20,5 C 0,0 C 54 % 1020,5 hPa 0,0 l/m 2,3 km/h (1 Bft) N-NO 22 14,7 C 24,6 C 4,4 km/h (1 Bft)
17.06.2019 18:58 24,5 C 28,4 C 20,5 C 0,0 C 54 % 1020,5 hPa 0,0 l/m 3,1 km/h (1 Bft) W 270 14,6 C 24,5 C 3,1 km/h (1 Bft)
17.06.2019 18:56 24,5 C 28,0 C 20,5 C 0,0 C 53 % 1020,5 hPa 0,0 l/m 3,5 km/h (1 Bft) NO 45 14,3 C 24,5 C 3,1 km/h (1 Bft)
17.06.2019 18:54 24,5 C 28,1 C 20,5 C 0,0 C 53 % 1020,5 hPa 0,0 l/m 4,2 km/h (1 Bft) NO 45 14,3 C 24,5 C 5,4 km/h (1 Bft)
17.06.2019 18:52 24,5 C 27,4 C 20,5 C 0,0 C 53 % 1020,5 hPa 0,0 l/m 4,8 km/h (1 Bft) N-NO 22 14,3 C 24,5 C 5,4 km/h (1 Bft)
17.06.2019 18:50 24,6 C 27,6 C 20,5 C 0,0 C 53 % 1020,5 hPa 0,0 l/m 4,8 km/h (1 Bft) O-NO 67 14,4 C 24,6 C 8,1 km/h (2 Bft)
17.06.2019 18:48 24,6 C 27,8 C 20,5 C 0,0 C 53 % 1020,5 hPa 0,0 l/m 4,8 km/h (1 Bft) O-NO 67 14,4 C 24,6 C 8,1 km/h (2 Bft)
17.06.2019 18:46 24,7 C 28,0 C 20,5 C 0,0 C 53 % 1020,5 hPa 0,0 l/m 4,7 km/h (1 Bft) O-NO 67 14,5 C 24,7 C 11,8 km/h (2 Bft)
17.06.2019 18:44 24,9 C 28,3 C 20,5 C 0,0 C 53 % 1020,5 hPa 0,0 l/m 4,8 km/h (1 Bft) NO 45 14,6 C 24,9 C 11,8 km/h (2 Bft)
17.06.2019 18:42 25,0 C 29,2 C 20,5 C 0,0 C 53 % 1020,5 hPa 0,0 l/m 4,3 km/h (1 Bft) NO 45 14,7 C 25,0 C 7,3 km/h (2 Bft)
17.06.2019 18:40 25,0 C 29,8 C 20,5 C 0,0 C 53 % 1020,5 hPa 0,0 l/m 4,2 km/h (1 Bft) N-NO 22 14,7 C 25,0 C 6,0 km/h (2 Bft)
17.06.2019 18:38 25,1 C 29,1 C 20,5 C 0,0 C 53 % 1020,5 hPa 0,0 l/m 4,3 km/h (1 Bft) SO 135 14,8 C 25,1 C 6,2 km/h (2 Bft)
17.06.2019 18:36 25,1 C 29,4 C 20,5 C 0,0 C 53 % 1020,5 hPa 0,0 l/m 5,8 km/h (2 Bft) O-NO 67 14,8 C 25,1 C 7,7 km/h (2 Bft)
17.06.2019 18:34 25,0 C 29,6 C 20,5 C 0,0 C 53 % 1020,5 hPa 0,0 l/m 5,6 km/h (1 Bft) NO 45 14,7 C 25,0 C 8,5 km/h (2 Bft)
17.06.2019 18:32 25,0 C 29,9 C 20,5 C 0,0 C 53 % 1020,5 hPa 0,0 l/m 6,0 km/h (2 Bft) NO 45 14,7 C 25,0 C 8,5 km/h (2 Bft)
17.06.2019 18:30 24,8 C 29,6 C 20,6 C 0,0 C 54 % 1020,5 hPa 0,0 l/m 6,3 km/h (2 Bft) O-NO 67 14,8 C 24,8 C 4,6 km/h (1 Bft)
17.06.2019 18:28 24,8 C 29,4 C 20,6 C 0,0 C 53 % 1020,5 hPa 0,0 l/m 6,6 km/h (2 Bft) O-NO 67 14,6 C 24,8 C 14,7 km/h (3 Bft)
17.06.2019 18:26 24,7 C 29,0 C 20,6 C 0,0 C 54 % 1020,5 hPa 0,0 l/m 6,4 km/h (2 Bft) N-NO 22 14,8 C 24,7 C 14,7 km/h (3 Bft)
17.06.2019 18:24 24,7 C 29,3 C 20,6 C 0,0 C 54 % 1020,4 hPa 0,0 l/m 6,4 km/h (2 Bft) W 270 14,8 C 24,7 C 9,1 km/h (2 Bft)
17.06.2019 18:22 24,5 C 29,2 C 20,6 C 0,0 C 54 % 1020,4 hPa 0,0 l/m 6,1 km/h (2 Bft) NO 45 14,6 C 24,5 C 8,7 km/h (2 Bft)
17.06.2019 18:20 24,4 C 28,8 C 20,6 C 0,0 C 54 % 1020,4 hPa 0,0 l/m 6,6 km/h (2 Bft) N-NO 22 14,5 C 24,4 C 10,4 km/h (2 Bft)
17.06.2019 18:18 24,4 C 25,7 C 20,6 C 0,0 C 54 % 1020,4 hPa 0,0 l/m 7,2 km/h (2 Bft) NO 45 14,5 C 24,2 C 10,4 km/h (2 Bft)
17.06.2019 18:16 24,6 C 25,7 C 20,6 C 0,0 C 54 % 1020,4 hPa 0,0 l/m 6,8 km/h (2 Bft) N-NO 22 14,7 C 24,5 C 9,7 km/h (2 Bft)
17.06.2019 18:14 24,8 C 27,2 C 20,6 C 0,0 C 54 % 1020,4 hPa 0,0 l/m 5,8 km/h (2 Bft) N-NO 22 14,8 C 24,8 C 19,1 km/h (3 Bft)
17.06.2019 18:12 25,0 C 29,1 C 20,6 C 0,0 C 53 % 1020,4 hPa 0,0 l/m 6,0 km/h (2 Bft) O-SO 112 14,7 C 25,0 C 19,1 km/h (3 Bft)
17.06.2019 18:10 25,2 C 28,8 C 20,6 C 0,0 C 53 % 1020,4 hPa 0,0 l/m 6,0 km/h (2 Bft) NO 45 14,9 C 25,2 C 14,9 km/h (3 Bft)
17.06.2019 18:08 25,3 C 29,2 C 20,6 C 0,0 C 53 % 1020,4 hPa 0,0 l/m 5,3 km/h (1 Bft) S-SO 157 15,0 C 25,3 C 3,7 km/h (1 Bft)
17.06.2019 18:06 25,4 C 29,1 C 20,6 C 0,0 C 53 % 1020,4 hPa 0,0 l/m 5,8 km/h (2 Bft) NO 45 15,1 C 25,4 C 3,3 km/h (1 Bft)
17.06.2019 18:04 25,4 C 30,4 C 20,6 C 0,0 C 53 % 1020,4 hPa 0,0 l/m 6,3 km/h (2 Bft) N-NO 22 15,1 C 25,4 C 7,5 km/h (2 Bft)
17.06.2019 18:02 25,3 C 30,5 C 20,6 C 0,0 C 53 % 1020,4 hPa 0,0 l/m 7,1 km/h (2 Bft) W-NW 292 15,0 C 25,1 C 11,6 km/h (2 Bft)
17.06.2019 18:00 25,2 C 31,5 C 20,6 C 0,0 C 53 % 1020,4 hPa 0,0 l/m 6,8 km/h (2 Bft) NO 45 14,9 C 25,1 C 11,6 km/h (2 Bft)
17.06.2019 17:58 25,1 C 31,0 C 20,6 C 0,0 C 53 % 1020,4 hPa 0,0 l/m 6,4 km/h (2 Bft) N-NO 22 14,8 C 25,1 C 11,8 km/h (2 Bft)
17.06.2019 17:56 24,9 C 30,1 C 20,6 C 0,0 C 53 % 1020,4 hPa 0,0 l/m 5,8 km/h (2 Bft) N 360 14,6 C 24,9 C 14,3 km/h (3 Bft)
17.06.2019 17:54 24,7 C 29,1 C 20,6 C 0,0 C 53 % 1020,4 hPa 0,0 l/m 5,0 km/h (1 Bft) N-NO 22 14,5 C 24,7 C 14,3 km/h (3 Bft)
17.06.2019 17:52 24,6 C 29,1 C 20,6 C 0,0 C 53 % 1020,4 hPa 0,0 l/m 3,9 km/h (1 Bft) N-NO 22 14,4 C 24,6 C 8,5 km/h (2 Bft)
17.06.2019 17:50 24,4 C 29,1 C 20,6 C 0,0 C 54 % 1020,4 hPa 0,0 l/m 3,2 km/h (1 Bft) NO 45 14,5 C 24,4 C 8,5 km/h (2 Bft)
17.06.2019 17:48 24,3 C 27,4 C 20,6 C 0,0 C 54 % 1020,4 hPa 0,0 l/m 3,2 km/h (1 Bft) O-NO 67 14,4 C 24,3 C 8,5 km/h (2 Bft)
17.06.2019 17:46 24,2 C 26,1 C 20,6 C 0,0 C 55 % 1020,4 hPa 0,0 l/m 4,2 km/h (1 Bft) NO 45 14,6 C 24,2 C 6,0 km/h (2 Bft)
17.06.2019 17:44 24,2 C 25,1 C 20,6 C 0,0 C 54 % 1020,5 hPa 0,0 l/m 5,5 km/h (1 Bft) NO 45 14,3 C 24,2 C 5,0 km/h (1 Bft)
17.06.2019 17:42 24,3 C 25,5 C 20,6 C 0,0 C 54 % 1020,5 hPa 0,0 l/m 6,6 km/h (2 Bft) SO 135 14,4 C 24,3 C 4,4 km/h (1 Bft)
17.06.2019 17:40 24,5 C 26,1 C 20,6 C 0,0 C 54 % 1020,5 hPa 0,0 l/m 7,6 km/h (2 Bft) S-SO 157 14,6 C 24,2 C 6,4 km/h (2 Bft)
17.06.2019 17:38 24,6 C 26,4 C 20,6 C 0,0 C 54 % 1020,5 hPa 0,0 l/m 8,0 km/h (2 Bft) O-NO 67 14,7 C 24,2 C 9,5 km/h (2 Bft)
17.06.2019 17:36 24,7 C 27,9 C 20,6 C 0,0 C 54 % 1020,5 hPa 0,0 l/m 7,7 km/h (2 Bft) NO 45 14,8 C 24,4 C 18,2 km/h (3 Bft)
17.06.2019 17:34 24,8 C 29,5 C 20,6 C 0,0 C 54 % 1020,5 hPa 0,0 l/m 7,4 km/h (2 Bft) N-NO 22 14,8 C 24,5 C 18,5 km/h (3 Bft)
17.06.2019 17:32 24,8 C 28,2 C 20,6 C 0,0 C 54 % 1020,5 hPa 0,0 l/m 6,3 km/h (2 Bft) NO 45 14,8 C 24,8 C 18,5 km/h (3 Bft)
17.06.2019 17:30 24,8 C 27,9 C 20,6 C 0,0 C 55 % 1020,5 hPa 0,0 l/m 5,6 km/h (1 Bft) N-NO 22 15,1 C 24,8 C 16,6 km/h (3 Bft)
17.06.2019 17:28 24,8 C 27,2 C 20,6 C 0,0 C 55 % 1020,5 hPa 0,0 l/m 4,7 km/h (1 Bft) O-NO 67 15,1 C 24,8 C 8,5 km/h (2 Bft)
17.06.2019 17:26 24,7 C 27,1 C 20,5 C 0,0 C 55 % 1020,5 hPa 0,0 l/m 6,0 km/h (2 Bft) O-NO 67 15,0 C 24,7 C 10,4 km/h (2 Bft)
17.06.2019 17:24 24,9 C 27,1 C 20,5 C 0,0 C 54 % 1020,6 hPa 0,0 l/m 6,4 km/h (2 Bft) O-SO 112 14,9 C 24,9 C 10,4 km/h (2 Bft)
17.06.2019 17:22 25,0 C 27,4 C 20,5 C 0,0 C 53 % 1020,6 hPa 0,0 l/m 6,1 km/h (2 Bft) O-NO 67 14,7 C 25,0 C 16,6 km/h (3 Bft)
17.06.2019 17:20 25,1 C 27,0 C 20,5 C 0,0 C 53 % 1020,6 hPa 0,0 l/m 6,8 km/h (2 Bft) NO 45 14,8 C 25,0 C 16,6 km/h (3 Bft)
17.06.2019 17:18 25,1 C 28,8 C 20,5 C 0,0 C 53 % 1020,6 hPa 0,0 l/m 7,1 km/h (2 Bft) N-NO 22 14,8 C 24,9 C 15,4 km/h (3 Bft)
17.06.2019 17:16 25,1 C 29,0 C 20,5 C 0,0 C 53 % 1020,6 hPa 0,0 l/m 6,9 km/h (2 Bft) O-NO 67 14,8 C 25,0 C 15,4 km/h (3 Bft)
17.06.2019 17:14 25,0 C 29,0 C 20,5 C 0,0 C 53 % 1020,6 hPa 0,0 l/m 6,6 km/h (2 Bft) NO 45 14,7 C 25,0 C 8,5 km/h (2 Bft)
17.06.2019 17:12 24,9 C 28,8 C 20,5 C 0,0 C 54 % 1020,6 hPa 0,0 l/m 6,1 km/h (2 Bft) N-NW 337 14,9 C 24,9 C 12,9 km/h (3 Bft)
17.06.2019 17:10 24,8 C 28,4 C 20,5 C 0,0 C 54 % 1020,6 hPa 0,0 l/m 6,3 km/h (2 Bft) N-NO 22 14,8 C 24,8 C 12,9 km/h (3 Bft)
17.06.2019 17:08 24,7 C 26,9 C 20,5 C 0,0 C 54 % 1020,6 hPa 0,0 l/m 4,5 km/h (1 Bft) N-NO 22 14,8 C 24,7 C 11,0 km/h (2 Bft)
17.06.2019 17:06 24,7 C 27,6 C 20,5 C 0,0 C 54 % 1020,6 hPa 0,0 l/m 3,9 km/h (1 Bft) N 360 14,8 C 24,7 C 10,4 km/h (2 Bft)
17.06.2019 17:04 24,6 C 27,0 C 20,5 C 0,0 C 54 % 1020,8 hPa 0,0 l/m 3,1 km/h (1 Bft) NW 315 14,7 C 24,6 C 10,4 km/h (2 Bft)
17.06.2019 17:02 24,8 C 25,7 C 20,5 C 0,0 C 53 % 1020,8 hPa 0,0 l/m 4,5 km/h (1 Bft) N-NO 22 14,6 C 24,8 C 9,3 km/h (2 Bft)
17.06.2019 17:00 24,8 C 25,8 C 20,5 C 0,0 C 53 % 1020,8 hPa 0,0 l/m 5,1 km/h (1 Bft) O-NO 67 14,6 C 24,8 C 9,3 km/h (2 Bft)
17.06.2019 16:58 25,0 C 26,5 C 20,6 C 0,0 C 53 % 1020,8 hPa 0,0 l/m 6,8 km/h (2 Bft) N-NO 22 14,7 C 24,9 C 0,0 km/h (0 Bft)
17.06.2019 16:56 25,1 C 27,0 C 20,6 C 0,0 C 53 % 1020,8 hPa 0,0 l/m 8,2 km/h (2 Bft) O-NO 67 14,8 C 24,7 C 4,1 km/h (1 Bft)
17.06.2019 16:54 25,3 C 28,7 C 20,6 C 0,0 C 53 % 1020,8 hPa 0,0 l/m 9,3 km/h (2 Bft) N-NO 22 15,0 C 24,6 C 13,9 km/h (3 Bft)
17.06.2019 16:52 25,4 C 28,9 C 20,6 C 0,0 C 53 % 1020,8 hPa 0,0 l/m 9,2 km/h (2 Bft) O-NO 67 15,1 C 24,8 C 13,9 km/h (3 Bft)
17.06.2019 16:50 25,3 C 29,5 C 20,6 C 0,0 C 53 % 1020,8 hPa 0,0 l/m 8,9 km/h (2 Bft) NW 315 15,0 C 24,7 C 13,3 km/h (3 Bft)
17.06.2019 16:48 25,2 C 29,0 C 20,6 C 0,0 C 53 % 1020,8 hPa 0,0 l/m 8,7 km/h (2 Bft) N-NO 22 14,9 C 24,7 C 13,9 km/h (3 Bft)
17.06.2019 16:46 25,2 C 27,5 C 20,6 C 0,0 C 53 % 1020,8 hPa 0,0 l/m 8,0 km/h (2 Bft) N-NW 337 14,9 C 24,8 C 13,9 km/h (3 Bft)
17.06.2019 16:44 25,3 C 27,8 C 20,6 C 0,0 C 53 % 1021,1 hPa 0,0 l/m 7,7 km/h (2 Bft) N-NO 22 15,0 C 25,0 C 12,2 km/h (2 Bft)
17.06.2019 16:42 25,3 C 29,1 C 20,6 C 0,0 C 53 % 1021,1 hPa 0,0 l/m 8,2 km/h (2 Bft) N-NO 22 15,0 C 24,9 C 16,8 km/h (3 Bft)
17.06.2019 16:40 25,3 C 29,1 C 20,6 C 0,0 C 53 % 1021,1 hPa 0,0 l/m 8,7 km/h (2 Bft) NW 315 15,0 C 24,8 C 16,8 km/h (3 Bft)
17.06.2019 16:38 25,3 C 28,7 C 20,6 C 0,0 C 53 % 1021,1 hPa 0,0 l/m 9,3 km/h (2 Bft) NO 45 15,0 C 24,6 C 16,8 km/h (3 Bft)
17.06.2019 16:36 25,3 C 28,9 C 20,6 C 0,0 C 53 % 1021,1 hPa 0,0 l/m 9,7 km/h (2 Bft) N-NO 22 15,0 C 24,6 C 16,8 km/h (3 Bft)
17.06.2019 16:34 25,1 C 28,7 C 20,6 C 0,0 C 53 % 1021,1 hPa 0,0 l/m 9,5 km/h (2 Bft) O-NO 67 14,8 C 24,4 C 8,9 km/h (2 Bft)
17.06.2019 16:32 25,1 C 28,5 C 20,6 C 0,0 C 53 % 1021,1 hPa 0,0 l/m 9,7 km/h (2 Bft) N-NW 337 14,8 C 24,3 C 11,6 km/h (2 Bft)
17.06.2019 16:30 25,0 C 28,5 C 20,6 C 0,0 C 53 % 1021,1 hPa 0,0 l/m 10,0 km/h (2 Bft) N-NO 22 14,7 C 24,2 C 22,2 km/h (4 Bft)
17.06.2019 16:28 25,0 C 28,1 C 20,6 C 0,0 C 53 % 1021,1 hPa 0,0 l/m 9,7 km/h (2 Bft) N-NO 22 14,7 C 24,2 C 22,2 km/h (4 Bft)
17.06.2019 16:26 25,1 C 27,7 C 20,6 C 0,0 C 53 % 1021,1 hPa 0,0 l/m 9,0 km/h (2 Bft) NW 315 14,8 C 24,5 C 12,4 km/h (3 Bft)
17.06.2019 16:24 25,2 C 28,0 C 20,6 C 0,0 C 53 % 1021,2 hPa 0,0 l/m 10,3 km/h (2 Bft) O-NO 67 14,9 C 24,3 C 12,4 km/h (3 Bft)
17.06.2019 16:22 25,2 C 27,9 C 20,6 C 0,0 C 53 % 1021,2 hPa 0,0 l/m 10,0 km/h (2 Bft) N-NO 22 14,9 C 24,4 C 9,5 km/h (2 Bft)
17.06.2019 16:20 25,3 C 27,7 C 20,6 C 0,0 C 53 % 1021,2 hPa 0,0 l/m 10,1 km/h (2 Bft) NO 45 15,0 C 24,5 C 11,6 km/h (2 Bft)
17.06.2019 16:18 25,3 C 28,8 C 20,6 C 0,0 C 53 % 1021,2 hPa 0,0 l/m 10,6 km/h (2 Bft) N-NW 337 15,0 C 24,4 C 13,1 km/h (3 Bft)
17.06.2019 16:16 25,3 C 29,5 C 20,6 C 0,0 C 53 % 1021,2 hPa 0,0 l/m 10,9 km/h (2 Bft) N-NW 337 15,0 C 24,3 C 22,8 km/h (4 Bft)
17.06.2019 16:14 25,2 C 29,4 C 20,5 C 0,0 C 53 % 1021,2 hPa 0,0 l/m 10,5 km/h (2 Bft) N-NW 337 14,9 C 24,3 C 22,8 km/h (4 Bft)
17.06.2019 16:12 25,2 C 27,9 C 20,5 C 0,0 C 53 % 1021,2 hPa 0,0 l/m 10,5 km/h (2 Bft) N-NW 337 14,9 C 24,3 C 16,0 km/h (3 Bft)
17.06.2019 16:10 25,2 C 27,5 C 20,5 C 0,0 C 53 % 1021,2 hPa 0,0 l/m 10,9 km/h (2 Bft) N-NO 22 14,9 C 24,2 C 24,1 km/h (4 Bft)
17.06.2019 16:08 25,2 C 28,2 C 20,5 C 0,0 C 53 % 1021,2 hPa 0,0 l/m 11,7 km/h (2 Bft) N-NW 337 14,9 C 24,1 C 24,1 km/h (4 Bft)
17.06.2019 16:06 25,1 C 28,6 C 20,5 C 0,0 C 53 % 1021,2 hPa 0,0 l/m 11,6 km/h (2 Bft) N-NO 22 14,8 C 24,0 C 21,4 km/h (4 Bft)
17.06.2019 16:04 25,0 C 28,1 C 20,5 C 0,0 C 53 % 1021,2 hPa 0,0 l/m 12,2 km/h (2 Bft) N-NO 22 14,7 C 23,8 C 13,9 km/h (3 Bft)
17.06.2019 16:02 25,0 C 28,5 C 20,5 C 0,0 C 53 % 1021,2 hPa 0,0 l/m 11,4 km/h (2 Bft) N-NO 22 14,7 C 23,9 C 16,4 km/h (3 Bft)
17.06.2019 16:00 24,8 C 28,2 C 20,5 C 0,0 C 54 % 1021,2 hPa 0,0 l/m 11,1 km/h (2 Bft) N-NO 22 14,8 C 23,7 C 23,9 km/h (4 Bft)
17.06.2019 15:58 24,8 C 28,1 C 20,5 C 0,0 C 54 % 1021,2 hPa 0,0 l/m 9,8 km/h (2 Bft) N-NW 337 14,8 C 24,0 C 23,9 km/h (4 Bft)
17.06.2019 15:56 24,7 C 27,5 C 20,5 C 0,0 C 54 % 1021,2 hPa 0,0 l/m 9,8 km/h (2 Bft) N 360 14,8 C 23,9 C 21,8 km/h (4 Bft)
17.06.2019 15:54 24,6 C 27,0 C 20,5 C 0,0 C 54 % 1021,2 hPa 0,0 l/m 9,7 km/h (2 Bft) N-NW 337 14,7 C 23,8 C 21,8 km/h (4 Bft)
17.06.2019 15:52 24,6 C 26,7 C 20,5 C 0,0 C 54 % 1021,2 hPa 0,0 l/m 10,5 km/h (2 Bft) N-NW 337 14,7 C 23,6 C 16,0 km/h (3 Bft)
17.06.2019 15:50 24,5 C 27,0 C 20,5 C 0,0 C 54 % 1021,2 hPa 0,0 l/m 11,3 km/h (2 Bft) SO 135 14,6 C 23,3 C 16,0 km/h (3 Bft)
17.06.2019 15:48 24,5 C 26,6 C 20,5 C 0,0 C 54 % 1021,2 hPa 0,0 l/m 12,1 km/h (2 Bft) N-NO 22 14,6 C 23,2 C 18,3 km/h (3 Bft)
17.06.2019 15:46 24,4 C 26,2 C 20,5 C 0,0 C 54 % 1021,2 hPa 0,0 l/m 11,7 km/h (2 Bft) NO 45 14,5 C 23,2 C 18,3 km/h (3 Bft)
17.06.2019 15:44 24,4 C 26,4 C 20,5 C 0,0 C 54 % 1021,6 hPa 0,0 l/m 11,7 km/h (2 Bft) N-NW 337 14,5 C 23,2 C 21,2 km/h (4 Bft)
17.06.2019 15:42 24,3 C 25,7 C 20,5 C 0,0 C 54 % 1021,6 hPa 0,0 l/m 12,2 km/h (2 Bft) N-NO 22 14,4 C 22,9 C 21,2 km/h (4 Bft)
17.06.2019 15:40 24,2 C 25,4 C 20,4 C 0,0 C 54 % 1021,6 hPa 0,0 l/m 11,7 km/h (2 Bft) NO 45 14,3 C 22,9 C 21,4 km/h (4 Bft)
17.06.2019 15:38 24,1 C 25,4 C 20,4 C 0,0 C 54 % 1021,6 hPa 0,0 l/m 12,1 km/h (2 Bft) NO 45 14,2 C 22,7 C 21,4 km/h (4 Bft)
17.06.2019 15:36 24,1 C 25,4 C 20,4 C 0,0 C 54 % 1021,6 hPa 0,0 l/m 13,2 km/h (3 Bft) O-NO 67 14,2 C 22,5 C 19,9 km/h (4 Bft)
17.06.2019 15:34 24,1 C 25,1 C 20,4 C 0,0 C 54 % 1021,6 hPa 0,0 l/m 14,2 km/h (3 Bft) NO 45 14,2 C 22,4 C 20,5 km/h (4 Bft)
17.06.2019 15:32 24,2 C 25,2 C 20,4 C 0,0 C 54 % 1021,6 hPa 0,0 l/m 14,2 km/h (3 Bft) NO 45 14,3 C 22,5 C 20,5 km/h (4 Bft)
17.06.2019 15:30 24,2 C 25,0 C 20,4 C 0,0 C 53 % 1021,6 hPa 0,0 l/m 14,5 km/h (3 Bft) O-NO 67 14,0 C 22,4 C 18,5 km/h (3 Bft)
17.06.2019 15:28 24,2 C 25,0 C 20,4 C 0,0 C 53 % 1021,6 hPa 0,0 l/m 15,1 km/h (3 Bft) O-NO 67 14,0 C 22,3 C 24,9 km/h (4 Bft)
17.06.2019 15:26 24,2 C 24,7 C 20,4 C 0,0 C 53 % 1021,6 hPa 0,0 l/m 14,3 km/h (3 Bft) O-NO 67 14,0 C 22,5 C 24,9 km/h (4 Bft)
17.06.2019 15:24 24,2 C 25,0 C 20,4 C 0,0 C 54 % 1021,6 hPa 0,0 l/m 12,4 km/h (3 Bft) N 360 14,3 C 22,8 C 18,5 km/h (3 Bft)
17.06.2019 15:22 24,2 C 25,2 C 20,4 C 0,0 C 55 % 1021,6 hPa 0,0 l/m 11,3 km/h (2 Bft) N-NO 22 14,6 C 23,0 C 23,8 km/h (4 Bft)
17.06.2019 15:20 24,1 C 25,0 C 20,4 C 0,0 C 54 % 1021,6 hPa 0,0 l/m 10,1 km/h (2 Bft) N-NO 22 14,2 C 23,1 C 26,5 km/h (4 Bft)
17.06.2019 15:18 24,1 C 25,0 C 20,4 C 0,0 C 55 % 1021,6 hPa 0,0 l/m 8,5 km/h (2 Bft) N 360 14,5 C 23,5 C 26,5 km/h (4 Bft)
17.06.2019 15:16 24,1 C 25,0 C 20,4 C 0,0 C 55 % 1021,6 hPa 0,0 l/m 7,7 km/h (2 Bft) NO 45 14,5 C 23,7 C 19,7 km/h (3 Bft)
17.06.2019 15:14 24,1 C 24,7 C 20,4 C 0,0 C 55 % 1021,6 hPa 0,0 l/m 10,5 km/h (2 Bft) N 360 14,5 C 23,1 C 11,2 km/h (2 Bft)
17.06.2019 15:12 24,1 C 24,4 C 20,4 C 0,0 C 55 % 1021,6 hPa 0,0 l/m 12,4 km/h (3 Bft) O 90 14,5 C 22,7 C 12,2 km/h (2 Bft)
17.06.2019 15:10 24,2 C 24,2 C 20,4 C 0,0 C 54 % 1021,6 hPa 0,0 l/m 13,2 km/h (3 Bft) N-NO 22 14,3 C 22,6 C 12,2 km/h (2 Bft)
17.06.2019 15:08 24,4 C 24,7 C 20,4 C 0,0 C 54 % 1021,6 hPa 0,0 l/m 15,1 km/h (3 Bft) O-NO 67 14,5 C 22,6 C 10,8 km/h (2 Bft)
17.06.2019 15:06 24,5 C 24,7 C 20,4 C 0,0 C 54 % 1021,6 hPa 0,0 l/m 16,6 km/h (3 Bft) N-NW 337 14,6 C 22,5 C 38,8 km/h (5 Bft)
17.06.2019 15:04 24,8 C 25,2 C 20,4 C 0,0 C 54 % 1021,8 hPa 0,0 l/m 14,8 km/h (3 Bft) NO 45 14,8 C 23,1 C 30,5 km/h (5 Bft)
17.06.2019 15:02 24,8 C 25,3 C 20,4 C 0,0 C 54 % 1021,8 hPa 0,0 l/m 12,6 km/h (3 Bft) O-SO 112 14,8 C 23,5 C 17,6 km/h (3 Bft)
17.06.2019 15:00 24,9 C 25,7 C 20,4 C 0,0 C 54 % 1021,8 hPa 0,0 l/m 11,9 km/h (2 Bft) N-NW 337 14,9 C 23,7 C 27,2 km/h (4 Bft)
17.06.2019 14:58 24,9 C 25,8 C 20,4 C 0,0 C 54 % 1021,8 hPa 0,0 l/m 11,4 km/h (2 Bft) NW 315 14,9 C 23,8 C 27,2 km/h (4 Bft)
17.06.2019 14:56 24,9 C 26,4 C 20,4 C 0,0 C 54 % 1021,8 hPa 0,0 l/m 9,3 km/h (2 Bft) N-NW 337 14,9 C 24,2 C 13,5 km/h (3 Bft)
17.06.2019 14:54 24,9 C 25,9 C 20,4 C 0,0 C 54 % 1021,8 hPa 0,0 l/m 9,2 km/h (2 Bft) NW 315 14,9 C 24,2 C 12,9 km/h (3 Bft)
17.06.2019 14:52 24,9 C 25,8 C 20,3 C 0,0 C 54 % 1021,8 hPa 0,0 l/m 10,0 km/h (2 Bft) NO 45 14,9 C 24,1 C 12,9 km/h (3 Bft)
17.06.2019 14:50 24,9 C 25,9 C 20,3 C 0,0 C 54 % 1021,8 hPa 0,0 l/m 9,3 km/h (2 Bft) N-NO 22 14,9 C 24,2 C 23,6 km/h (4 Bft)
17.06.2019 14:48 24,9 C 25,9 C 20,3 C 0,0 C 54 % 1021,8 hPa 0,0 l/m 8,7 km/h (2 Bft) N-NO 22 14,9 C 24,3 C 23,6 km/h (4 Bft)
17.06.2019 14:46 24,9 C 26,0 C 20,3 C 0,0 C 54 % 1021,8 hPa 0,0 l/m 9,2 km/h (2 Bft) NO 45 14,9 C 24,2 C 9,8 km/h (2 Bft)
17.06.2019 14:44 24,8 C 25,9 C 20,3 C 0,0 C 54 % 1021,9 hPa 0,0 l/m 9,7 km/h (2 Bft) NO 45 14,8 C 24,0 C 13,5 km/h (3 Bft)
17.06.2019 14:42 24,7 C 26,0 C 20,3 C 0,0 C 54 % 1021,9 hPa 0,0 l/m 10,0 km/h (2 Bft) N-NO 22 14,8 C 23,8 C 13,5 km/h (3 Bft)
17.06.2019 14:40 24,6 C 25,7 C 20,3 C 0,0 C 54 % 1021,9 hPa 0,0 l/m 10,3 km/h (2 Bft) NO 45 14,7 C 23,7 C 22,2 km/h (4 Bft)
17.06.2019 14:38 24,6 C 25,7 C 20,3 C 0,0 C 54 % 1021,9 hPa 0,0 l/m 11,6 km/h (2 Bft) O-NO 67 14,7 C 23,4 C 22,2 km/h (4 Bft)
17.06.2019 14:36 24,5 C 25,7 C 20,3 C 0,0 C 55 % 1021,9 hPa 0,0 l/m 11,7 km/h (2 Bft) NO 45 14,9 C 23,3 C 25,7 km/h (4 Bft)
17.06.2019 14:34 24,5 C 25,5 C 20,3 C 0,0 C 55 % 1021,9 hPa 0,0 l/m 11,3 km/h (2 Bft) NO 45 14,9 C 23,3 C 23,9 km/h (4 Bft)
17.06.2019 14:32 24,4 C 25,5 C 20,3 C 0,0 C 55 % 1021,9 hPa 0,0 l/m 10,6 km/h (2 Bft) N 360 14,8 C 23,4 C 19,9 km/h (4 Bft)
17.06.2019 14:30 24,4 C 25,7 C 20,3 C 0,0 C 55 % 1021,9 hPa 0,0 l/m 11,1 km/h (2 Bft) NO 45 14,8 C 23,3 C 19,9 km/h (4 Bft)
17.06.2019 14:28 24,1 C 25,4 C 20,2 C 0,0 C 55 % 1021,9 hPa 0,0 l/m 10,8 km/h (2 Bft) N-NO 22 14,5 C 23,0 C 19,3 km/h (3 Bft)
17.06.2019 14:26 24,1 C 25,3 C 20,2 C 0,0 C 55 % 1021,9 hPa 0,0 l/m 10,3 km/h (2 Bft) N-NO 22 14,5 C 23,1 C 14,1 km/h (3 Bft)
17.06.2019 14:24 24,1 C 24,7 C 20,2 C 0,0 C 56 % 1022,1 hPa 0,0 l/m 9,0 km/h (2 Bft) NO 45 14,8 C 23,4 C 14,1 km/h (3 Bft)
17.06.2019 14:22 24,0 C 24,7 C 20,2 C 0,0 C 56 % 1022,1 hPa 0,0 l/m 8,4 km/h (2 Bft) N-NO 22 14,7 C 23,4 C 17,6 km/h (3 Bft)
17.06.2019 14:20 24,0 C 24,5 C 20,2 C 0,0 C 56 % 1022,1 hPa 0,0 l/m 8,2 km/h (2 Bft) NW 315 14,7 C 23,5 C 17,6 km/h (3 Bft)
17.06.2019 14:18 24,1 C 24,0 C 20,2 C 0,0 C 56 % 1022,1 hPa 0,0 l/m 8,2 km/h (2 Bft) O-NO 67 14,8 C 23,6 C 16,4 km/h (3 Bft)
17.06.2019 14:16 24,1 C 24,1 C 20,2 C 0,0 C 56 % 1022,1 hPa 0,0 l/m 8,0 km/h (2 Bft) N-NO 22 14,8 C 23,7 C 14,5 km/h (3 Bft)
17.06.2019 14:14 24,2 C 24,3 C 20,2 C 0,0 C 56 % 1022,1 hPa 0,0 l/m 8,4 km/h (2 Bft) NO 45 14,9 C 23,7 C 7,9 km/h (2 Bft)
17.06.2019 14:12 24,3 C 24,7 C 20,2 C 0,0 C 56 % 1022,1 hPa 0,0 l/m 8,5 km/h (2 Bft) NO 45 14,9 C 23,7 C 12,0 km/h (2 Bft)
17.06.2019 14:10 24,4 C 24,8 C 20,2 C 0,0 C 56 % 1022,1 hPa 0,0 l/m 8,7 km/h (2 Bft) N-NO 22 15,0 C 23,8 C 12,0 km/h (2 Bft)
17.06.2019 14:08 24,5 C 25,3 C 20,2 C 0,0 C 56 % 1022,1 hPa 0,0 l/m 8,4 km/h (2 Bft) NO 45 15,1 C 24,0 C 16,2 km/h (3 Bft)
17.06.2019 14:06 24,6 C 25,3 C 20,2 C 0,0 C 56 % 1022,1 hPa 0,0 l/m 7,6 km/h (2 Bft) N-NW 337 15,2 C 24,3 C 16,2 km/h (3 Bft)
17.06.2019 14:04 24,7 C 25,8 C 20,2 C 0,0 C 57 % 1021,9 hPa 0,0 l/m 7,1 km/h (2 Bft) N-NO 22 15,6 C 24,5 C 12,0 km/h (2 Bft)
17.06.2019 14:02 24,7 C 26,2 C 20,2 C 0,0 C 56 % 1021,9 hPa 0,0 l/m 6,6 km/h (2 Bft) O-NO 67 15,3 C 24,7 C 9,7 km/h (2 Bft)
17.06.2019 14:00 24,6 C 26,0 C 20,1 C 0,0 C 57 % 1021,9 hPa 0,0 l/m 7,1 km/h (2 Bft) NO 45 15,5 C 24,4 C 19,3 km/h (3 Bft)
17.06.2019 13:58 24,6 C 25,9 C 20,1 C 0,0 C 57 % 1021,9 hPa 0,0 l/m 6,3 km/h (2 Bft) N 360 15,5 C 24,6 C 19,3 km/h (3 Bft)
17.06.2019 13:56 24,4 C 25,6 C 20,1 C 0,0 C 56 % 1021,9 hPa 0,0 l/m 6,0 km/h (2 Bft) N-NW 337 15,0 C 24,4 C 12,7 km/h (3 Bft)
17.06.2019 13:54 24,4 C 25,5 C 20,1 C 0,0 C 56 % 1021,9 hPa 0,0 l/m 6,0 km/h (2 Bft) S 180 15,0 C 24,4 C 8,9 km/h (2 Bft)
17.06.2019 13:52 24,3 C 25,3 C 20,1 C 0,0 C 56 % 1021,9 hPa 0,0 l/m 6,1 km/h (2 Bft) NO 45 14,9 C 24,3 C 11,8 km/h (2 Bft)
17.06.2019 13:50 24,3 C 25,4 C 20,1 C 0,0 C 57 % 1021,9 hPa 0,0 l/m 6,3 km/h (2 Bft) N-NO 22 15,2 C 24,3 C 11,8 km/h (2 Bft)
17.06.2019 13:48 24,3 C 24,9 C 20,1 C 0,0 C 56 % 1021,9 hPa 0,0 l/m 6,6 km/h (2 Bft) N-NO 22 14,9 C 24,3 C 8,9 km/h (2 Bft)
17.06.2019 13:46 24,3 C 24,8 C 20,0 C 0,0 C 56 % 1021,9 hPa 0,0 l/m 7,4 km/h (2 Bft) NW 315 14,9 C 24,0 C 8,9 km/h (2 Bft)
17.06.2019 13:44 24,3 C 24,7 C 20,0 C 0,0 C 56 % 1021,9 hPa 0,0 l/m 8,7 km/h (2 Bft) O-NO 67 14,9 C 23,7 C 10,4 km/h (2 Bft)
17.06.2019 13:42 24,3 C 24,8 C 20,0 C 0,0 C 57 % 1021,9 hPa 0,0 l/m 9,2 km/h (2 Bft) O-NO 67 15,2 C 23,6 C 11,0 km/h (2 Bft)
17.06.2019 13:40 24,3 C 25,1 C 20,0 C 0,0 C 57 % 1021,9 hPa 0,0 l/m 7,7 km/h (2 Bft) N-NO 22 15,2 C 23,9 C 11,0 km/h (2 Bft)
17.06.2019 13:38 24,3 C 24,9 C 20,0 C 0,0 C 56 % 1021,9 hPa 0,0 l/m 6,6 km/h (2 Bft) W-SW 247 14,9 C 24,3 C 12,6 km/h (3 Bft)
17.06.2019 13:36 24,3 C 24,8 C 20,0 C 0,0 C 56 % 1021,9 hPa 0,0 l/m 5,3 km/h (1 Bft) N-NO 22 14,9 C 24,3 C 22,4 km/h (4 Bft)
17.06.2019 13:34 24,3 C 25,1 C 20,0 C 0,0 C 57 % 1021,9 hPa 0,0 l/m 3,2 km/h (1 Bft) N-NO 22 15,2 C 24,3 C 14,7 km/h (3 Bft)
17.06.2019 13:32 24,2 C 25,6 C 19,9 C 0,0 C 57 % 1021,9 hPa 0,0 l/m 2,9 km/h (1 Bft) O-NO 67 15,1 C 24,2 C 14,7 km/h (3 Bft)
17.06.2019 13:30 24,2 C 25,6 C 19,9 C 0,0 C 57 % 1021,9 hPa 0,0 l/m 2,9 km/h (1 Bft) S 180 15,1 C 24,2 C 2,7 km/h (1 Bft)
17.06.2019 13:28 24,1 C 25,3 C 19,9 C 0,0 C 57 % 1021,9 hPa 0,0 l/m 4,0 km/h (1 Bft) O-SO 112 15,0 C 24,1 C 0,0 km/h (0 Bft)
17.06.2019 13:26 24,1 C 24,8 C 19,9 C 0,0 C 57 % 1021,9 hPa 0,0 l/m 4,5 km/h (1 Bft) S-SW 202 15,0 C 24,1 C 6,0 km/h (2 Bft)
17.06.2019 13:24 24,1 C 24,5 C 19,9 C 0,0 C 57 % 1022,2 hPa 0,0 l/m 6,1 km/h (2 Bft) N-NO 22 15,0 C 24,1 C 9,7 km/h (2 Bft)
17.06.2019 13:22 24,1 C 24,5 C 19,9 C 0,0 C 57 % 1022,2 hPa 0,0 l/m 6,4 km/h (2 Bft) N-NO 22 15,0 C 24,1 C 14,5 km/h (3 Bft)
17.06.2019 13:20 24,0 C 24,7 C 19,9 C 0,0 C 57 % 1022,2 hPa 0,0 l/m 6,1 km/h (2 Bft) N-NO 22 14,9 C 24,0 C 14,5 km/h (3 Bft)
17.06.2019 13:18 24,0 C 24,5 C 19,9 C 0,0 C 57 % 1022,2 hPa 0,0 l/m 5,1 km/h (1 Bft) N-NO 22 14,9 C 24,0 C 12,0 km/h (2 Bft)
17.06.2019 13:16 23,9 C 24,5 C 19,9 C 0,0 C 58 % 1022,2 hPa 0,0 l/m 5,6 km/h (1 Bft) N-NW 337 15,1 C 23,9 C 11,2 km/h (2 Bft)
17.06.2019 13:14 23,9 C 24,4 C 19,9 C 0,0 C 58 % 1022,2 hPa 0,0 l/m 5,5 km/h (1 Bft) O-NO 67 15,1 C 23,9 C 13,3 km/h (3 Bft)
17.06.2019 13:12 23,9 C 24,2 C 19,8 C 0,0 C 58 % 1022,2 hPa 0,0 l/m 5,5 km/h (1 Bft) O-NO 67 15,1 C 23,9 C 13,3 km/h (3 Bft)
17.06.2019 13:10 23,9 C 24,4 C 19,9 C 0,0 C 58 % 1022,2 hPa 0,0 l/m 5,3 km/h (1 Bft) NO 45 15,1 C 23,9 C 9,8 km/h (2 Bft)
17.06.2019 13:08 23,8 C 24,3 C 19,9 C 0,0 C 58 % 1022,2 hPa 0,0 l/m 6,1 km/h (2 Bft) N 360 15,0 C 23,8 C 10,6 km/h (2 Bft)
17.06.2019 13:06 23,8 C 24,4 C 19,9 C 0,0 C 58 % 1022,2 hPa 0,0 l/m 6,3 km/h (2 Bft) N-NW 337 15,0 C 23,8 C 13,3 km/h (3 Bft)
17.06.2019 13:04 23,8 C 24,4 C 19,9 C 0,0 C 58 % 1022,3 hPa 0,0 l/m 6,0 km/h (2 Bft) N-NO 22 15,0 C 23,8 C 13,3 km/h (3 Bft)
17.06.2019 13:02 23,7 C 24,1 C 19,9 C 0,0 C 58 % 1022,3 hPa 0,0 l/m 6,3 km/h (2 Bft) NO 45 14,9 C 23,7 C 9,8 km/h (2 Bft)
17.06.2019 13:00 23,7 C 24,2 C 19,9 C 0,0 C 58 % 1022,3 hPa 0,0 l/m 7,6 km/h (2 Bft) SO 135 14,9 C 23,3 C 11,4 km/h (2 Bft)
17.06.2019 12:58 23,7 C 24,2 C 19,9 C 0,0 C 58 % 1022,3 hPa 0,0 l/m 8,2 km/h (2 Bft) N-NO 22 14,9 C 23,2 C 11,4 km/h (2 Bft)
17.06.2019 12:56 23,6 C 24,2 C 19,8 C 0,0 C 58 % 1022,3 hPa 0,0 l/m 8,2 km/h (2 Bft) N-NO 22 14,8 C 23,1 C 21,8 km/h (4 Bft)
17.06.2019 12:54 23,6 C 24,2 C 19,8 C 0,0 C 58 % 1022,3 hPa 0,0 l/m 8,5 km/h (2 Bft) O-NO 67 14,8 C 23,0 C 8,9 km/h (2 Bft)
17.06.2019 12:52 23,5 C 24,1 C 19,8 C 0,0 C 58 % 1022,3 hPa 0,0 l/m 8,4 km/h (2 Bft) N-NO 22 14,7 C 22,9 C 14,7 km/h (3 Bft)
17.06.2019 12:50 23,4 C 24,1 C 19,8 C 0,0 C 59 % 1022,3 hPa 0,0 l/m 6,4 km/h (2 Bft) W-NW 292 14,9 C 23,4 C 15,6 km/h (3 Bft)
17.06.2019 12:48 23,3 C 24,1 C 19,8 C 0,0 C 59 % 1022,3 hPa 0,0 l/m 5,0 km/h (1 Bft) W 270 14,8 C 23,3 C 15,6 km/h (3 Bft)
17.06.2019 12:46 23,3 C 23,8 C 19,8 C 0,0 C 59 % 1022,3 hPa 0,0 l/m 4,3 km/h (1 Bft) NW 315 14,8 C 23,3 C 12,0 km/h (2 Bft)
17.06.2019 12:44 23,2 C 23,8 C 19,8 C 0,0 C 59 % 1022,4 hPa 0,0 l/m 3,7 km/h (1 Bft) NO 45 14,7 C 23,2 C 11,2 km/h (2 Bft)
17.06.2019 12:42 23,2 C 23,8 C 19,8 C 0,0 C 59 % 1022,4 hPa 0,0 l/m 3,2 km/h (1 Bft) N-NW 337 14,7 C 23,2 C 4,2 km/h (1 Bft)
17.06.2019 12:40 23,1 C 23,8 C 19,7 C 0,0 C 58 % 1022,4 hPa 0,0 l/m 3,4 km/h (1 Bft) NW 315 14,4 C 23,1 C 7,5 km/h (2 Bft)
17.06.2019 12:38 23,2 C 23,7 C 19,7 C 0,0 C 58 % 1022,4 hPa 0,0 l/m 3,9 km/h (1 Bft) NW 315 14,5 C 23,2 C 7,5 km/h (2 Bft)
17.06.2019 12:36 23,3 C 23,7 C 19,7 C 0,0 C 58 % 1022,4 hPa 0,0 l/m 3,7 km/h (1 Bft) NW 315 14,6 C 23,3 C 10,2 km/h (2 Bft)
17.06.2019 12:34 23,3 C 23,8 C 19,7 C 0,0 C 59 % 1022,4 hPa 0,0 l/m 3,9 km/h (1 Bft) NW 315 14,8 C 23,3 C 10,2 km/h (2 Bft)
17.06.2019 12:32 23,3 C 23,9 C 19,7 C 0,0 C 59 % 1022,4 hPa 0,0 l/m 3,1 km/h (1 Bft) NO 45 14,8 C 23,3 C 8,1 km/h (2 Bft)
17.06.2019 12:30 23,2 C 23,9 C 19,7 C 0,0 C 59 % 1022,4 hPa 0,0 l/m 2,7 km/h (1 Bft) N-NW 337 14,7 C 23,2 C 8,1 km/h (2 Bft)
17.06.2019 12:28 23,2 C 23,9 C 19,7 C 0,0 C 59 % 1022,4 hPa 0,0 l/m 2,1 km/h (1 Bft) N-NO 22 14,7 C 23,2 C 8,1 km/h (2 Bft)
17.06.2019 12:26 23,2 C 23,9 C 19,6 C 0,0 C 59 % 1022,4 hPa 0,0 l/m 1,6 km/h (1 Bft) NW 315 14,7 C 23,2 C 8,1 km/h (2 Bft)
17.06.2019 12:24 23,2 C 24,2 C 19,6 C 0,0 C 58 % 1022,6 hPa 0,0 l/m 0,8 km/h (0 Bft) N-NW 337 14,5 C 23,2 C 3,9 km/h (1 Bft)
17.06.2019 12:22 23,2 C 24,2 C 19,6 C 0,0 C 58 % 1022,6 hPa 0,0 l/m 1,0 km/h (0 Bft) N 360 14,5 C 23,2 C 3,1 km/h (1 Bft)
17.06.2019 12:20 23,2 C 24,1 C 19,6 C 0,0 C 59 % 1022,6 hPa 0,0 l/m 1,0 km/h (0 Bft) N-NO 22 14,7 C 23,2 C 2,7 km/h (1 Bft)
17.06.2019 12:18 23,2 C 24,1 C 19,6 C 0,0 C 59 % 1022,6 hPa 0,0 l/m 1,1 km/h (1 Bft) O-SO 112 14,7 C 23,2 C 7,0 km/h (2 Bft)
17.06.2019 12:16 23,3 C 24,0 C 19,6 C 0,0 C 59 % 1022,6 hPa 0,0 l/m 1,3 km/h (1 Bft) O-SO 112 14,8 C 23,3 C 7,0 km/h (2 Bft)
17.06.2019 12:14 23,3 C 24,2 C 19,6 C 0,0 C 59 % 1022,6 hPa 0,0 l/m 1,3 km/h (1 Bft) SO 135 14,8 C 23,3 C 5,8 km/h (2 Bft)
17.06.2019 12:12 23,1 C 24,2 C 19,6 C 0,0 C 59 % 1022,6 hPa 0,0 l/m 1,4 km/h (1 Bft) NW 315 14,6 C 23,1 C 5,8 km/h (2 Bft)
17.06.2019 12:10 23,0 C 24,2 C 19,6 C 0,0 C 59 % 1022,6 hPa 0,0 l/m 1,4 km/h (1 Bft) NW 315 14,5 C 23,0 C 7,3 km/h (2 Bft)
17.06.2019 12:08 22,9 C 23,9 C 19,6 C 0,0 C 61 % 1022,6 hPa 0,0 l/m 2,1 km/h (1 Bft) O-NO 67 15,0 C 22,9 C 7,3 km/h (2 Bft)
17.06.2019 12:06 22,8 C 23,5 C 19,6 C 0,0 C 61 % 1022,6 hPa 0,0 l/m 2,3 km/h (1 Bft) N-NW 337 14,9 C 22,8 C 0,0 km/h (0 Bft)
17.06.2019 12:04 22,7 C 23,5 C 19,6 C 0,0 C 61 % 1022,5 hPa 0,0 l/m 2,9 km/h (1 Bft) N-NW 337 14,8 C 22,7 C 0,0 km/h (0 Bft)
17.06.2019 12:02 22,7 C 23,5 C 19,6 C 0,0 C 61 % 1022,5 hPa 0,0 l/m 2,9 km/h (1 Bft) N-NW 337 14,8 C 22,7 C 3,5 km/h (1 Bft)
17.06.2019 12:00 22,6 C 23,1 C 19,6 C 0,0 C 61 % 1022,5 hPa 0,0 l/m 3,1 km/h (1 Bft) N-NO 22 14,7 C 22,6 C 3,5 km/h (1 Bft)
17.06.2019 11:58 22,6 C 23,0 C 19,6 C 0,0 C 61 % 1022,5 hPa 0,0 l/m 2,6 km/h (1 Bft) N-NO 22 14,7 C 22,6 C 5,2 km/h (1 Bft)
17.06.2019 11:56 22,6 C 22,9 C 19,6 C 0,0 C 61 % 1022,5 hPa 0,0 l/m 2,6 km/h (1 Bft) NO 45 14,7 C 22,6 C 5,2 km/h (1 Bft)
17.06.2019 11:54 22,6 C 23,2 C 19,6 C 0,0 C 61 % 1022,5 hPa 0,0 l/m 2,1 km/h (1 Bft) N-NO 22 14,7 C 22,6 C 4,1 km/h (1 Bft)
17.06.2019 11:52 22,6 C 23,2 C 19,6 C 0,0 C 61 % 1022,5 hPa 0,0 l/m 2,1 km/h (1 Bft) N 360 14,7 C 22,6 C 4,2 km/h (1 Bft)
17.06.2019 11:50 22,6 C 23,0 C 19,6 C 0,0 C 61 % 1022,5 hPa 0,0 l/m 2,9 km/h (1 Bft) NO 45 14,7 C 22,6 C 4,2 km/h (1 Bft)
17.06.2019 11:48 22,6 C 23,2 C 19,6 C 0,0 C 61 % 1022,5 hPa 0,0 l/m 3,2 km/h (1 Bft) N-NO 22 14,7 C 22,6 C 2,9 km/h (1 Bft)
17.06.2019 11:46 22,5 C 23,2 C 19,6 C 0,0 C 61 % 1022,5 hPa 0,0 l/m 3,5 km/h (1 Bft) NO 45 14,6 C 22,5 C 2,9 km/h (1 Bft)
17.06.2019 11:44 22,5 C 23,1 C 19,6 C 0,0 C 61 % 1022,6 hPa 0,0 l/m 3,4 km/h (1 Bft) N-NW 337 14,6 C 22,5 C 2,9 km/h (1 Bft)
17.06.2019 11:42 22,5 C 23,1 C 19,5 C 0,0 C 61 % 1022,6 hPa 0,0 l/m 3,7 km/h (1 Bft) O 90 14,6 C 22,5 C 6,8 km/h (2 Bft)
17.06.2019 11:40 22,5 C 23,0 C 19,5 C 0,0 C 61 % 1022,6 hPa 0,0 l/m 4,0 km/h (1 Bft) N-NO 22 14,6 C 22,5 C 7,3 km/h (2 Bft)
17.06.2019 11:38 22,5 C 23,0 C 19,5 C 0,0 C 60 % 1022,6 hPa 0,0 l/m 3,9 km/h (1 Bft) N 360 14,3 C 22,5 C 7,3 km/h (2 Bft)
17.06.2019 11:36 22,5 C 23,2 C 19,5 C 0,0 C 61 % 1022,6 hPa 0,0 l/m 3,5 km/h (1 Bft) NW 315 14,6 C 22,5 C 4,8 km/h (1 Bft)
17.06.2019 11:34 22,5 C 23,1 C 19,5 C 0,0 C 61 % 1022,6 hPa 0,0 l/m 3,5 km/h (1 Bft) NW 315 14,6 C 22,5 C 6,2 km/h (2 Bft)
17.06.2019 11:32 22,5 C 23,1 C 19,5 C 0,0 C 61 % 1022,6 hPa 0,0 l/m 3,9 km/h (1 Bft) N-NO 22 14,6 C 22,5 C 9,1 km/h (2 Bft)
17.06.2019 11:30 22,5 C 23,1 C 19,5 C 0,0 C 61 % 1022,6 hPa 0,0 l/m 3,7 km/h (1 Bft) N-NW 337 14,6 C 22,5 C 9,1 km/h (2 Bft)
17.06.2019 11:28 22,5 C 22,9 C 19,5 C 0,0 C 61 % 1022,6 hPa 0,0 l/m 3,5 km/h (1 Bft) NW 315 14,6 C 22,5 C 7,0 km/h (2 Bft)
17.06.2019 11:26 22,5 C 23,0 C 19,5 C 0,0 C 61 % 1022,6 hPa 0,0 l/m 4,2 km/h (1 Bft) W 270 14,6 C 22,5 C 5,4 km/h (1 Bft)
17.06.2019 11:24 22,5 C 23,2 C 19,5 C 0,0 C 61 % 1022,7 hPa 0,0 l/m 4,5 km/h (1 Bft) N 360 14,6 C 22,5 C 8,5 km/h (2 Bft)
17.06.2019 11:22 22,3 C 23,1 C 19,4 C 0,0 C 61 % 1022,7 hPa 0,0 l/m 4,3 km/h (1 Bft) N-NO 22 14,4 C 22,3 C 8,5 km/h (2 Bft)
17.06.2019 11:20 22,2 C 22,8 C 19,4 C 0,0 C 61 % 1022,7 hPa 0,0 l/m 3,9 km/h (1 Bft) N-NO 22 14,3 C 22,2 C 4,1 km/h (1 Bft)
17.06.2019 11:18 22,1 C 22,8 C 19,4 C 0,0 C 62 % 1022,7 hPa 0,0 l/m 3,4 km/h (1 Bft) N-NW 337 14,5 C 22,1 C 10,4 km/h (2 Bft)
17.06.2019 11:16 22,0 C 22,8 C 19,4 C 0,0 C 62 % 1022,7 hPa 0,0 l/m 2,4 km/h (1 Bft) N-NO 22 14,4 C 22,0 C 10,4 km/h (2 Bft)
17.06.2019 11:14 21,8 C 22,5 C 19,4 C 0,0 C 62 % 1022,7 hPa 0,0 l/m 1,3 km/h (1 Bft) N-NO 22 14,2 C 21,8 C 4,1 km/h (1 Bft)
17.06.2019 11:12 21,7 C 22,4 C 19,4 C 0,0 C 62 % 1022,7 hPa 0,0 l/m 0,6 km/h (0 Bft) O-SO 112 14,1 C 21,7 C 2,9 km/h (1 Bft)
17.06.2019 11:10 21,6 C 22,2 C 19,4 C 0,0 C 62 % 1022,7 hPa 0,0 l/m 0,5 km/h (0 Bft) NO 45 14,0 C 21,6 C 3,1 km/h (1 Bft)
17.06.2019 11:08 21,6 C 22,3 C 19,4 C 0,0 C 62 % 1022,7 hPa 0,0 l/m 0,2 km/h (0 Bft) NO 45 14,0 C 21,6 C 3,1 km/h (1 Bft)
17.06.2019 11:06 21,6 C 22,2 C 19,4 C 0,0 C 62 % 1022,7 hPa 0,0 l/m 0,5 km/h (0 Bft) S 180 14,0 C 21,6 C 0,0 km/h (0 Bft)
17.06.2019 11:04 21,6 C 22,1 C 19,4 C 0,0 C 62 % 1022,8 hPa 0,0 l/m 0,6 km/h (0 Bft) NO 45 14,0 C 21,6 C 0,0 km/h (0 Bft)
17.06.2019 11:02 21,6 C 22,1 C 19,3 C 0,0 C 62 % 1022,8 hPa 0,0 l/m 0,8 km/h (0 Bft) O-NO 67 14,0 C 21,6 C 0,0 km/h (0 Bft)
17.06.2019 11:00 21,6 C 22,0 C 19,3 C 0,0 C 62 % 1022,8 hPa 0,0 l/m 1,0 km/h (0 Bft) O-NO 67 14,0 C 21,6 C 0,0 km/h (0 Bft)
17.06.2019 10:58 21,6 C 22,1 C 19,3 C 0,0 C 62 % 1022,8 hPa 0,0 l/m 1,1 km/h (1 Bft) O-NO 67 14,0 C 21,6 C 4,4 km/h (1 Bft)
17.06.2019 10:56 21,6 C 22,0 C 19,3 C 0,0 C 62 % 1022,8 hPa 0,0 l/m 1,0 km/h (0 Bft) W 270 14,0 C 21,6 C 4,4 km/h (1 Bft)
17.06.2019 10:54 21,6 C 22,0 C 19,3 C 0,0 C 62 % 1022,8 hPa 0,0 l/m 0,6 km/h (0 Bft) NW 315 14,0 C 21,6 C 3,9 km/h (1 Bft)
17.06.2019 10:52 21,6 C 22,0 C 19,3 C 0,0 C 62 % 1022,8 hPa 0,0 l/m 0,6 km/h (0 Bft) NO 45 14,0 C 21,6 C 3,7 km/h (1 Bft)
17.06.2019 10:50 21,6 C 22,0 C 19,3 C 0,0 C 62 % 1022,8 hPa 0,0 l/m 1,3 km/h (1 Bft) S 180 14,0 C 21,6 C 0,0 km/h (0 Bft)
17.06.2019 10:48 21,6 C 21,9 C 19,3 C 0,0 C 62 % 1022,8 hPa 0,0 l/m 1,6 km/h (1 Bft) S-SO 157 14,0 C 21,6 C 0,0 km/h (0 Bft)
17.06.2019 10:46 21,5 C 22,0 C 19,3 C 0,0 C 62 % 1022,8 hPa 0,0 l/m 1,6 km/h (1 Bft) SO 135 13,9 C 21,5 C 0,0 km/h (0 Bft)
17.06.2019 10:44 21,6 C 21,9 C 19,3 C 0,0 C 62 % 1022,8 hPa 0,0 l/m 1,8 km/h (1 Bft) O-NO 67 14,0 C 21,6 C 2,1 km/h (1 Bft)
17.06.2019 10:42 21,6 C 21,8 C 19,3 C 0,0 C 62 % 1022,8 hPa 0,0 l/m 2,6 km/h (1 Bft) O-NO 67 14,0 C 21,6 C 7,5 km/h (2 Bft)
17.06.2019 10:40 21,6 C 21,8 C 19,3 C 0,0 C 62 % 1022,8 hPa 0,0 l/m 2,6 km/h (1 Bft) NO 45 14,0 C 21,6 C 7,5 km/h (2 Bft)
17.06.2019 10:38 21,6 C 22,0 C 19,3 C 0,0 C 62 % 1022,8 hPa 0,0 l/m 2,6 km/h (1 Bft) NO 45 14,0 C 21,6 C 6,6 km/h (2 Bft)
17.06.2019 10:36 21,6 C 21,7 C 19,3 C 0,0 C 61 % 1022,8 hPa 0,0 l/m 3,5 km/h (1 Bft) S 180 13,7 C 21,6 C 3,9 km/h (1 Bft)
17.06.2019 10:34 21,6 C 21,8 C 19,3 C 0,0 C 61 % 1022,8 hPa 0,0 l/m 4,0 km/h (1 Bft) SO 135 13,7 C 21,6 C 11,4 km/h (2 Bft)
17.06.2019 10:32 21,8 C 21,8 C 19,3 C 0,0 C 62 % 1022,8 hPa 0,0 l/m 3,4 km/h (1 Bft) W-SW 247 14,2 C 21,8 C 11,4 km/h (2 Bft)
17.06.2019 10:30 21,8 C 21,8 C 19,3 C 0,0 C 62 % 1022,8 hPa 0,0 l/m 3,1 km/h (1 Bft) SW 225 14,2 C 21,8 C 8,1 km/h (2 Bft)
17.06.2019 10:28 21,8 C 22,0 C 19,3 C 0,0 C 62 % 1022,8 hPa 0,0 l/m 3,5 km/h (1 Bft) SW 225 14,2 C 21,8 C 14,7 km/h (3 Bft)
17.06.2019 10:26 21,7 C 22,0 C 19,3 C 0,0 C 62 % 1022,8 hPa 0,0 l/m 3,9 km/h (1 Bft) SW 225 14,1 C 21,7 C 16,2 km/h (3 Bft)
17.06.2019 10:24 21,8 C 21,7 C 19,3 C 0,0 C 62 % 1022,7 hPa 0,0 l/m 4,7 km/h (1 Bft) W 270 14,2 C 21,8 C 3,5 km/h (1 Bft)
17.06.2019 10:22 21,8 C 21,8 C 19,3 C 0,0 C 62 % 1022,7 hPa 0,0 l/m 5,8 km/h (2 Bft) S-SO 157 14,2 C 21,8 C 4,4 km/h (1 Bft)
17.06.2019 10:20 21,9 C 22,1 C 19,3 C 0,0 C 62 % 1022,7 hPa 0,0 l/m 6,6 km/h (2 Bft) N-NW 337 14,3 C 21,8 C 14,9 km/h (3 Bft)
17.06.2019 10:18 21,9 C 22,4 C 19,3 C 0,0 C 62 % 1022,7 hPa 0,0 l/m 6,9 km/h (2 Bft) NW 315 14,3 C 21,7 C 14,9 km/h (3 Bft)
17.06.2019 10:16 21,7 C 22,5 C 19,4 C 0,0 C 62 % 1022,7 hPa 0,0 l/m 6,3 km/h (2 Bft) NW 315 14,1 C 21,7 C 13,3 km/h (3 Bft)
17.06.2019 10:14 21,6 C 22,6 C 19,4 C 0,0 C 62 % 1022,7 hPa 0,0 l/m 5,1 km/h (1 Bft) N-NO 22 14,0 C 21,6 C 12,9 km/h (3 Bft)
17.06.2019 10:12 21,6 C 22,5 C 19,3 C 0,0 C 62 % 1022,7 hPa 0,0 l/m 5,0 km/h (1 Bft) W-SW 247 14,0 C 21,6 C 14,3 km/h (3 Bft)
17.06.2019 10:10 21,5 C 22,3 C 19,3 C 0,0 C 62 % 1022,7 hPa 0,0 l/m 4,2 km/h (1 Bft) N 360 13,9 C 21,5 C 14,3 km/h (3 Bft)
17.06.2019 10:08 21,5 C 22,3 C 19,3 C 0,0 C 62 % 1022,7 hPa 0,0 l/m 3,9 km/h (1 Bft) N-NW 337 13,9 C 21,5 C 8,3 km/h (2 Bft)
17.06.2019 10:06 21,5 C 22,3 C 19,3 C 0,0 C 62 % 1022,7 hPa 0,0 l/m 4,0 km/h (1 Bft) N-NW 337 13,9 C 21,5 C 5,2 km/h (1 Bft)
17.06.2019 10:04 21,4 C 22,1 C 19,3 C 0,0 C 62 % 1022,8 hPa 0,0 l/m 4,2 km/h (1 Bft) W 270 13,8 C 21,4 C 8,9 km/h (2 Bft)
17.06.2019 10:02 21,4 C 22,2 C 19,3 C 0,0 C 63 % 1022,8 hPa 0,0 l/m 4,0 km/h (1 Bft) NW 315 14,1 C 21,4 C 8,9 km/h (2 Bft)
17.06.2019 10:00 21,3 C 22,2 C 19,3 C 0,0 C 63 % 1022,8 hPa 0,0 l/m 3,5 km/h (1 Bft) NW 315 14,0 C 21,3 C 6,4 km/h (2 Bft)
17.06.2019 09:58 21,3 C 22,2 C 19,3 C 0,0 C 63 % 1022,8 hPa 0,0 l/m 3,5 km/h (1 Bft) SW 225 14,0 C 21,3 C 6,6 km/h (2 Bft)
17.06.2019 09:56 21,3 C 21,9 C 19,3 C 0,0 C 63 % 1022,8 hPa 0,0 l/m 3,5 km/h (1 Bft) N 360 14,0 C 21,3 C 6,6 km/h (2 Bft)
17.06.2019 09:54 21,3 C 21,9 C 19,3 C 0,0 C 63 % 1022,8 hPa 0,0 l/m 2,9 km/h (1 Bft) W-SW 247 14,0 C 21,3 C 7,0 km/h (2 Bft)
17.06.2019 09:52 21,3 C 22,0 C 19,3 C 0,0 C 63 % 1022,8 hPa 0,0 l/m 3,1 km/h (1 Bft) N-NW 337 14,0 C 21,3 C 7,0 km/h (2 Bft)
17.06.2019 09:50 21,3 C 21,9 C 19,3 C 0,0 C 63 % 1022,8 hPa 0,0 l/m 3,1 km/h (1 Bft) N-NW 337 14,0 C 21,3 C 6,6 km/h (2 Bft)
17.06.2019 09:48 21,4 C 22,1 C 19,3 C 0,0 C 63 % 1022,8 hPa 0,0 l/m 2,6 km/h (1 Bft) N-NO 22 14,1 C 21,4 C 5,6 km/h (1 Bft)
17.06.2019 09:46 21,3 C 22,1 C 19,3 C 0,0 C 63 % 1022,8 hPa 0,0 l/m 2,4 km/h (1 Bft) N-NW 337 14,0 C 21,3 C 2,9 km/h (1 Bft)
17.06.2019 09:44 21,3 C 21,9 C 19,3 C 0,0 C 63 % 1022,5 hPa 0,0 l/m 2,7 km/h (1 Bft) NW 315 14,0 C 21,3 C 7,0 km/h (2 Bft)
17.06.2019 09:42 21,3 C 22,1 C 19,3 C 0,0 C 63 % 1022,5 hPa 0,0 l/m 3,1 km/h (1 Bft) W 270 14,0 C 21,3 C 7,0 km/h (2 Bft)
17.06.2019 09:40 21,3 C 22,1 C 19,3 C 0,0 C 63 % 1022,5 hPa 0,0 l/m 2,9 km/h (1 Bft) W-SW 247 14,0 C 21,3 C 6,0 km/h (2 Bft)
17.06.2019 09:38 21,3 C 22,2 C 19,2 C 0,0 C 64 % 1022,5 hPa 0,0 l/m 2,7 km/h (1 Bft) N-NO 22 14,2 C 21,3 C 4,6 km/h (1 Bft)
17.06.2019 09:36 21,3 C 22,1 C 19,2 C 0,0 C 64 % 1022,5 hPa 0,0 l/m 2,9 km/h (1 Bft) N-NO 22 14,2 C 21,3 C 4,6 km/h (1 Bft)
17.06.2019 09:34 21,2 C 22,1 C 19,2 C 0,0 C 64 % 1022,5 hPa 0,0 l/m 2,7 km/h (1 Bft) NW 315 14,1 C 21,2 C 4,6 km/h (1 Bft)
17.06.2019 09:32 21,2 C 22,1 C 19,2 C 0,0 C 64 % 1022,5 hPa 0,0 l/m 2,4 km/h (1 Bft) N-NW 337 14,1 C 21,2 C 4,2 km/h (1 Bft)
17.06.2019 09:30 21,2 C 22,1 C 19,2 C 0,0 C 64 % 1022,5 hPa 0,0 l/m 2,6 km/h (1 Bft) NO 45 14,1 C 21,2 C 4,2 km/h (1 Bft)
17.06.2019 09:28 21,1 C 22,1 C 19,3 C 0,0 C 64 % 1022,5 hPa 0,0 l/m 2,6 km/h (1 Bft) N-NO 22 14,0 C 21,1 C 3,9 km/h (1 Bft)
17.06.2019 09:26 21,1 C 21,9 C 19,3 C 0,0 C 64 % 1022,5 hPa 0,0 l/m 2,4 km/h (1 Bft) N-NW 337 14,0 C 21,1 C 3,9 km/h (1 Bft)
17.06.2019 09:24 21,1 C 21,8 C 19,3 C 0,0 C 64 % 1022,9 hPa 0,0 l/m 2,4 km/h (1 Bft) N-NW 337 14,0 C 21,1 C 4,6 km/h (1 Bft)
17.06.2019 09:22 21,0 C 21,8 C 19,3 C 0,0 C 64 % 1022,9 hPa 0,0 l/m 2,6 km/h (1 Bft) N-NO 22 13,9 C 21,0 C 4,6 km/h (1 Bft)
17.06.2019 09:20 20,9 C 21,8 C 19,3 C 0,0 C 65 % 1022,9 hPa 0,0 l/m 2,3 km/h (1 Bft) W-NW 292 14,1 C 20,9 C 4,8 km/h (1 Bft)
17.06.2019 09:18 20,9 C 21,6 C 19,3 C 0,0 C 65 % 1022,9 hPa 0,0 l/m 2,3 km/h (1 Bft) N-NO 22 14,1 C 20,9 C 4,8 km/h (1 Bft)
17.06.2019 09:16 20,9 C 21,5 C 19,3 C 0,0 C 65 % 1022,9 hPa 0,0 l/m 2,6 km/h (1 Bft) NO 45 14,1 C 20,9 C 3,5 km/h (1 Bft)
17.06.2019 09:14 20,8 C 21,4 C 19,3 C 0,0 C 65 % 1022,9 hPa 0,0 l/m 3,1 km/h (1 Bft) N-NW 337 14,0 C 20,8 C 4,1 km/h (1 Bft)
17.06.2019 09:12 20,7 C 21,4 C 19,3 C 0,0 C 65 % 1022,9 hPa 0,0 l/m 3,4 km/h (1 Bft) N-NW 337 13,9 C 20,7 C 4,1 km/h (1 Bft)
17.06.2019 09:10 20,7 C 21,2 C 19,3 C 0,0 C 65 % 1022,9 hPa 0,0 l/m 3,5 km/h (1 Bft) NO 45 13,9 C 20,7 C 3,7 km/h (1 Bft)
17.06.2019 09:08 20,7 C 21,2 C 19,3 C 0,0 C 65 % 1022,9 hPa 0,0 l/m 3,2 km/h (1 Bft) NW 315 13,9 C 20,7 C 6,2 km/h (2 Bft)
17.06.2019 09:06 20,6 C 20,9 C 19,3 C 0,0 C 65 % 1022,9 hPa 0,0 l/m 3,1 km/h (1 Bft) N-NO 22 13,8 C 20,6 C 9,1 km/h (2 Bft)
17.06.2019 09:04 20,6 C 20,8 C 19,3 C 0,0 C 65 % 1022,7 hPa 0,0 l/m 2,7 km/h (1 Bft) N-NO 22 13,8 C 20,6 C 9,1 km/h (2 Bft)
17.06.2019 09:02 20,5 C 20,7 C 19,3 C 0,0 C 64 % 1022,7 hPa 0,0 l/m 2,4 km/h (1 Bft) NW 315 13,5 C 20,5 C 6,2 km/h (2 Bft)
17.06.2019 09:00 20,6 C 20,6 C 19,3 C 0,0 C 64 % 1022,7 hPa 0,0 l/m 2,1 km/h (1 Bft) N-NW 337 13,5 C 20,6 C 3,7 km/h (1 Bft)
17.06.2019 08:58 20,6 C 20,5 C 19,3 C 0,0 C 63 % 1022,7 hPa 0,0 l/m 2,6 km/h (1 Bft) SW 225 13,3 C 20,6 C 3,9 km/h (1 Bft)
17.06.2019 08:56 20,7 C 20,5 C 19,3 C 0,0 C 63 % 1022,7 hPa 0,0 l/m 3,4 km/h (1 Bft) NW 315 13,4 C 20,7 C 9,1 km/h (2 Bft)
17.06.2019 08:54 20,7 C 20,7 C 19,3 C 0,0 C 63 % 1022,7 hPa 0,0 l/m 4,0 km/h (1 Bft) W-SW 247 13,4 C 20,7 C 9,1 km/h (2 Bft)
17.06.2019 08:52 20,8 C 20,8 C 19,3 C 0,0 C 63 % 1022,7 hPa 0,0 l/m 3,9 km/h (1 Bft) W-SW 247 13,5 C 20,8 C 4,1 km/h (1 Bft)
17.06.2019 08:50 20,8 C 21,3 C 19,3 C 0,0 C 63 % 1022,7 hPa 0,0 l/m 3,9 km/h (1 Bft) W-SW 247 13,5 C 20,8 C 4,1 km/h (1 Bft)
17.06.2019 08:48 20,8 C 21,5 C 19,3 C 0,0 C 64 % 1022,7 hPa 0,0 l/m 3,9 km/h (1 Bft) W 270 13,7 C 20,8 C 8,5 km/h (2 Bft)
17.06.2019 08:46 20,8 C 21,6 C 19,3 C 0,0 C 64 % 1022,7 hPa 0,0 l/m 3,7 km/h (1 Bft) W-SW 247 13,7 C 20,8 C 8,5 km/h (2 Bft)
17.06.2019 08:44 20,9 C 21,7 C 19,3 C 0,0 C 65 % 1022,8 hPa 0,0 l/m 2,9 km/h (1 Bft) W-SW 247 14,1 C 20,9 C 6,2 km/h (2 Bft)
17.06.2019 08:42 20,9 C 22,1 C 19,3 C 0,0 C 65 % 1022,8 hPa 0,0 l/m 2,1 km/h (1 Bft) W-SW 247 14,1 C 20,9 C 3,1 km/h (1 Bft)
17.06.2019 08:40 21,0 C 22,4 C 19,3 C 0,0 C 65 % 1022,8 hPa 0,0 l/m 1,9 km/h (1 Bft) SO 135 14,2 C 21,0 C 2,5 km/h (1 Bft)
17.06.2019 08:38 21,0 C 23,0 C 19,3 C 0,0 C 65 % 1022,8 hPa 0,0 l/m 2,1 km/h (1 Bft) S-SO 157 14,2 C 21,0 C 3,9 km/h (1 Bft)
17.06.2019 08:36 20,9 C 23,2 C 19,3 C 0,0 C 66 % 1022,8 hPa 0,0 l/m 1,3 km/h (1 Bft) O-SO 112 14,3 C 20,9 C 3,9 km/h (1 Bft)
17.06.2019 08:34 20,9 C 23,0 C 19,3 C 0,0 C 66 % 1022,8 hPa 0,0 l/m 1,1 km/h (1 Bft) NO 45 14,3 C 20,9 C 3,1 km/h (1 Bft)
17.06.2019 08:32 20,8 C 22,9 C 19,3 C 0,0 C 66 % 1022,8 hPa 0,0 l/m 1,6 km/h (1 Bft) O-NO 67 14,2 C 20,8 C 3,1 km/h (1 Bft)
17.06.2019 08:30 20,6 C 23,3 C 19,3 C 0,0 C 66 % 1022,8 hPa 0,0 l/m 1,8 km/h (1 Bft) O-SO 112 14,0 C 20,6 C 1,9 km/h (1 Bft)
17.06.2019 08:28 20,6 C 22,6 C 19,3 C 0,0 C 66 % 1022,8 hPa 0,0 l/m 1,8 km/h (1 Bft) O-NO 67 14,0 C 20,6 C 1,9 km/h (1 Bft)
17.06.2019 08:26 20,5 C 23,0 C 19,3 C 0,0 C 66 % 1022,8 hPa 0,0 l/m 2,1 km/h (1 Bft) S-SO 157 13,9 C 20,5 C 0,0 km/h (0 Bft)
17.06.2019 08:24 20,6 C 24,3 C 19,3 C 0,0 C 66 % 1023,0 hPa 0,0 l/m 2,6 km/h (1 Bft) SO 135 14,0 C 20,6 C 5,8 km/h (2 Bft)
17.06.2019 08:22 20,6 C 24,2 C 19,3 C 0,0 C 66 % 1023,0 hPa 0,0 l/m 2,3 km/h (1 Bft) S 180 14,0 C 20,6 C 5,8 km/h (2 Bft)
17.06.2019 08:20 20,6 C 24,1 C 19,3 C 0,0 C 66 % 1023,0 hPa 0,0 l/m 1,4 km/h (1 Bft) SO 135 14,0 C 20,6 C 4,1 km/h (1 Bft)
17.06.2019 08:18 20,6 C 23,6 C 19,3 C 0,0 C 66 % 1023,0 hPa 0,0 l/m 1,1 km/h (1 Bft) O 90 14,0 C 20,6 C 4,1 km/h (1 Bft)
17.06.2019 08:16 20,6 C 23,3 C 19,3 C 0,0 C 67 % 1023,0 hPa 0,0 l/m 1,1 km/h (1 Bft) O 90 14,3 C 20,6 C 4,1 km/h (1 Bft)
17.06.2019 08:14 20,5 C 23,3 C 19,3 C 0,0 C 67 % 1023,0 hPa 0,0 l/m 1,1 km/h (1 Bft) N-NO 22 14,2 C 20,5 C 4,1 km/h (1 Bft)
17.06.2019 08:12 20,4 C 22,8 C 19,3 C 0,0 C 67 % 1023,0 hPa 0,0 l/m 1,3 km/h (1 Bft) SO 135 14,1 C 20,4 C 0,0 km/h (0 Bft)
17.06.2019 08:10 20,3 C 22,1 C 19,3 C 0,0 C 68 % 1023,0 hPa 0,0 l/m 1,6 km/h (1 Bft) NO 45 14,2 C 20,3 C 2,9 km/h (1 Bft)
17.06.2019 08:08 20,2 C 21,6 C 19,3 C 0,0 C 68 % 1023,0 hPa 0,0 l/m 1,6 km/h (1 Bft) NO 45 14,1 C 20,2 C 4,8 km/h (1 Bft)
17.06.2019 08:06 20,1 C 20,9 C 19,4 C 0,0 C 68 % 1023,0 hPa 0,0 l/m 1,6 km/h (1 Bft) N-NO 22 14,0 C 20,1 C 5,6 km/h (1 Bft)
17.06.2019 08:04 20,2 C 20,8 C 19,4 C 0,0 C 68 % 1023,0 hPa 0,0 l/m 1,4 km/h (1 Bft) NO 45 14,1 C 20,2 C 5,6 km/h (1 Bft)
17.06.2019 08:02 20,2 C 21,1 C 19,4 C 0,0 C 69 % 1023,0 hPa 0,0 l/m 1,1 km/h (1 Bft) NW 315 14,3 C 20,2 C 2,3 km/h (1 Bft)
17.06.2019 08:00 20,1 C 21,1 C 19,4 C 0,0 C 69 % 1023,0 hPa 0,0 l/m 1,1 km/h (1 Bft) N 360 14,2 C 20,1 C 2,3 km/h (1 Bft)
17.06.2019 07:58 20,1 C 21,0 C 19,4 C 0,0 C 70 % 1023,0 hPa 0,0 l/m 1,6 km/h (1 Bft) O-NO 67 14,5 C 20,1 C 2,7 km/h (1 Bft)
17.06.2019 07:56 19,8 C 20,7 C 19,4 C 0,0 C 70 % 1023,0 hPa 0,0 l/m 1,9 km/h (1 Bft) N-NO 22 14,2 C 19,8 C 5,4 km/h (1 Bft)
17.06.2019 07:54 19,8 C 20,3 C 19,4 C 0,0 C 70 % 1023,0 hPa 0,0 l/m 1,9 km/h (1 Bft) N 360 14,2 C 19,8 C 5,4 km/h (1 Bft)
17.06.2019 07:52 19,7 C 20,3 C 19,4 C 0,0 C 70 % 1023,0 hPa 0,0 l/m 1,4 km/h (1 Bft) N 360 14,1 C 19,7 C 3,3 km/h (1 Bft)
17.06.2019 07:50 19,5 C 20,2 C 19,4 C 0,0 C 71 % 1023,0 hPa 0,0 l/m 1,4 km/h (1 Bft) N-NO 22 14,1 C 19,5 C 3,3 km/h (1 Bft)
17.06.2019 07:48 19,3 C 20,0 C 19,4 C 0,0 C 71 % 1023,0 hPa 0,0 l/m 1,1 km/h (1 Bft) N-NW 337 13,9 C 19,3 C 3,7 km/h (1 Bft)
17.06.2019 07:46 19,3 C 20,0 C 19,3 C 0,0 C 70 % 1023,0 hPa 0,0 l/m 0,6 km/h (0 Bft) N-NO 22 13,7 C 19,3 C 3,7 km/h (1 Bft)
17.06.2019 07:44 19,2 C 20,0 C 19,3 C 0,0 C 70 % 1022,8 hPa 0,0 l/m 0,3 km/h (0 Bft) N 360 13,6 C 19,2 C 0,0 km/h (0 Bft)
17.06.2019 07:42 19,1 C 19,9 C 19,3 C 0,0 C 71 % 1022,8 hPa 0,0 l/m 0,6 km/h (0 Bft) SO 135 13,7 C 19,1 C 0,0 km/h (0 Bft)
17.06.2019 07:40 19,1 C 19,9 C 19,3 C 0,0 C 71 % 1022,8 hPa 0,0 l/m 1,0 km/h (0 Bft) SO 135 13,7 C 19,1 C 3,5 km/h (1 Bft)
17.06.2019 07:38 19,1 C 19,9 C 19,3 C 0,0 C 70 % 1022,8 hPa 0,0 l/m 1,3 km/h (1 Bft) S 180 13,5 C 19,1 C 3,5 km/h (1 Bft)
17.06.2019 07:36 19,1 C 20,0 C 19,3 C 0,0 C 71 % 1022,8 hPa 0,0 l/m 1,6 km/h (1 Bft) SO 135 13,7 C 19,1 C 2,7 km/h (1 Bft)
17.06.2019 07:34 19,2 C 20,1 C 19,3 C 0,0 C 71 % 1022,8 hPa 0,0 l/m 1,9 km/h (1 Bft) S-SO 157 13,8 C 19,2 C 2,9 km/h (1 Bft)
17.06.2019 07:32 19,3 C 20,3 C 19,3 C 0,0 C 71 % 1022,8 hPa 0,0 l/m 1,8 km/h (1 Bft) S-SO 157 13,9 C 19,3 C 3,3 km/h (1 Bft)
17.06.2019 07:30 19,4 C 20,4 C 19,3 C 0,0 C 71 % 1022,8 hPa 0,0 l/m 1,8 km/h (1 Bft) S 180 14,0 C 19,4 C 3,5 km/h (1 Bft)
17.06.2019 07:28 19,4 C 20,6 C 19,3 C 0,0 C 71 % 1022,8 hPa 0,0 l/m 1,4 km/h (1 Bft) SO 135 14,0 C 19,4 C 3,5 km/h (1 Bft)
17.06.2019 07:26 19,4 C 21,1 C 19,3 C 0,0 C 71 % 1022,8 hPa 0,0 l/m 1,0 km/h (0 Bft) S-SW 202 14,0 C 19,4 C 3,3 km/h (1 Bft)
17.06.2019 07:24 19,3 C 21,1 C 19,3 C 0,0 C 71 % 1023,0 hPa 0,0 l/m 0,6 km/h (0 Bft) S-SO 157 13,9 C 19,3 C 3,3 km/h (1 Bft)
17.06.2019 07:22 19,2 C 21,3 C 19,3 C 0,0 C 72 % 1023,0 hPa 0,0 l/m 0,5 km/h (0 Bft) S 180 14,0 C 19,2 C 6,0 km/h (2 Bft)
17.06.2019 07:20 19,2 C 22,2 C 19,3 C 0,0 C 72 % 1023,0 hPa 0,0 l/m 0,5 km/h (0 Bft) S-SW 202 14,0 C 19,2 C 6,0 km/h (2 Bft)
17.06.2019 07:18 19,0 C 22,4 C 19,3 C 0,0 C 72 % 1023,0 hPa 0,0 l/m 0,5 km/h (0 Bft) O-SO 112 13,8 C 19,0 C 0,0 km/h (0 Bft)
17.06.2019 07:16 18,8 C 22,2 C 19,3 C 0,0 C 73 % 1023,0 hPa 0,0 l/m 0,6 km/h (0 Bft) O-NO 67 13,9 C 18,8 C 0,0 km/h (0 Bft)
17.06.2019 07:14 18,7 C 21,6 C 19,3 C 0,0 C 73 % 1023,0 hPa 0,0 l/m 0,6 km/h (0 Bft) N-NO 22 13,8 C 18,7 C 1,9 km/h (1 Bft)
17.06.2019 07:12 18,5 C 20,9 C 19,3 C 0,0 C 73 % 1023,0 hPa 0,0 l/m 0,6 km/h (0 Bft) N-NO 22 13,6 C 18,5 C 2,1 km/h (1 Bft)
17.06.2019 07:10 18,3 C 20,5 C 19,3 C 0,0 C 73 % 1023,0 hPa 0,0 l/m 0,6 km/h (0 Bft) NO 45 13,4 C 18,3 C 2,1 km/h (1 Bft)
17.06.2019 07:08 18,2 C 20,1 C 19,3 C 0,0 C 74 % 1023,0 hPa 0,0 l/m 0,6 km/h (0 Bft) N-NO 22 13,5 C 18,2 C 2,1 km/h (1 Bft)
17.06.2019 07:06 18,1 C 19,8 C 19,3 C 0,0 C 74 % 1023,0 hPa 0,0 l/m 0,6 km/h (0 Bft) NO 45 13,4 C 18,1 C 2,1 km/h (1 Bft)
17.06.2019 07:04 18,0 C 19,7 C 19,3 C 0,0 C 74 % 1022,2 hPa 0,0 l/m 0,5 km/h (0 Bft) N 360 13,3 C 18,0 C 0,0 km/h (0 Bft)
17.06.2019 07:02 17,9 C 19,4 C 19,3 C 0,0 C 74 % 1022,2 hPa 0,0 l/m 0,5 km/h (0 Bft) N-NW 337 13,2 C 17,9 C 0,0 km/h (0 Bft)
17.06.2019 07:00 17,9 C 19,4 C 19,3 C 0,0 C 74 % 1022,2 hPa 0,0 l/m 0,5 km/h (0 Bft) NO 45 13,2 C 17,9 C 2,7 km/h (1 Bft)
17.06.2019 06:58 17,9 C 19,5 C 19,3 C 0,0 C 74 % 1022,2 hPa 0,0 l/m 0,5 km/h (0 Bft) N-NW 337 13,2 C 17,9 C 2,7 km/h (1 Bft)
17.06.2019 06:56 17,9 C 19,6 C 19,3 C 0,0 C 74 % 1022,2 hPa 0,0 l/m 0,2 km/h (0 Bft) O-NO 67 13,2 C 17,9 C 2,5 km/h (1 Bft)
17.06.2019 06:54 17,8 C 19,5 C 19,3 C 0,0 C 74 % 1022,2 hPa 0,0 l/m 0,0 km/h (0 Bft) NO 45 13,1 C 17,8 C 2,5 km/h (1 Bft)
17.06.2019 06:52 17,7 C 19,5 C 19,3 C 0,0 C 74 % 1022,2 hPa 0,0 l/m 0,0 km/h (0 Bft) NO 45 13,0 C 17,7 C 0,0 km/h (0 Bft)
17.06.2019 06:50 17,5 C 19,2 C 19,3 C 0,0 C 75 % 1022,2 hPa 0,0 l/m 0,0 km/h (0 Bft) NW 315 13,0 C 17,5 C 0,0 km/h (0 Bft)
17.06.2019 06:48 17,4 C 19,1 C 19,3 C 0,0 C 75 % 1022,2 hPa 0,0 l/m 0,0 km/h (0 Bft) NO 45 12,9 C 17,4 C 0,0 km/h (0 Bft)
17.06.2019 06:46 17,2 C 19,0 C 19,3 C 0,0 C 75 % 1022,2 hPa 0,0 l/m 0,0 km/h (0 Bft) O-NO 67 12,7 C 17,2 C 0,0 km/h (0 Bft)
17.06.2019 06:44 17,0 C 18,7 C 19,3 C 0,0 C 75 % 1022,9 hPa 0,0 l/m 0,2 km/h (0 Bft) NO 45 12,5 C 17,0 C 0,0 km/h (0 Bft)
17.06.2019 06:42 16,6 C 18,5 C 19,3 C 0,0 C 76 % 1022,9 hPa 0,0 l/m 0,2 km/h (0 Bft) NO 45 12,3 C 16,6 C 0,0 km/h (0 Bft)
17.06.2019 06:40 16,6 C 18,1 C 19,3 C 0,0 C 76 % 1022,9 hPa 0,0 l/m 0,2 km/h (0 Bft) O-NO 67 12,3 C 16,6 C 0,0 km/h (0 Bft)
17.06.2019 06:38 16,5 C 17,8 C 19,3 C 0,0 C 76 % 1022,9 hPa 0,0 l/m 0,2 km/h (0 Bft) N-NO 22 12,3 C 16,5 C 2,1 km/h (1 Bft)
17.06.2019 06:36 16,3 C 17,6 C 19,3 C 0,0 C 76 % 1022,9 hPa 0,0 l/m 0,3 km/h (0 Bft) N-NO 22 12,1 C 16,3 C 2,1 km/h (1 Bft)
17.06.2019 06:34 16,3 C 17,4 C 19,3 C 0,0 C 76 % 1022,9 hPa 0,0 l/m 0,6 km/h (0 Bft) N-NW 337 12,1 C 16,3 C 2,1 km/h (1 Bft)
17.06.2019 06:32 16,2 C 17,3 C 19,3 C 0,0 C 76 % 1022,9 hPa 0,0 l/m 0,6 km/h (0 Bft) N-NO 22 12,0 C 16,2 C 1,9 km/h (1 Bft)
17.06.2019 06:30 16,2 C 17,1 C 19,3 C 0,0 C 76 % 1022,9 hPa 0,0 l/m 0,6 km/h (0 Bft) N-NO 22 12,0 C 16,2 C 1,9 km/h (1 Bft)
17.06.2019 06:28 16,2 C 17,1 C 19,3 C 0,0 C 76 % 1022,9 hPa 0,0 l/m 0,6 km/h (0 Bft) O-NO 67 12,0 C 16,2 C 2,5 km/h (1 Bft)
17.06.2019 06:26 16,1 C 17,0 C 19,3 C 0,0 C 76 % 1022,9 hPa 0,0 l/m 0,6 km/h (0 Bft) NO 45 11,9 C 16,1 C 2,5 km/h (1 Bft)
17.06.2019 06:24 16,1 C 17,0 C 19,3 C 0,0 C 76 % 1022,7 hPa 0,0 l/m 0,3 km/h (0 Bft) NO 45 11,9 C 16,1 C 2,5 km/h (1 Bft)
17.06.2019 06:22 16,0 C 17,0 C 19,3 C 0,0 C 76 % 1022,7 hPa 0,0 l/m 0,0 km/h (0 Bft) N-NO 22 11,8 C 16,0 C 0,0 km/h (0 Bft)
17.06.2019 06:20 16,0 C 17,0 C 19,3 C 0,0 C 76 % 1022,7 hPa 0,0 l/m 0,0 km/h (0 Bft) N-NO 22 11,8 C 16,0 C 0,0 km/h (0 Bft)
17.06.2019 06:18 16,1 C 16,9 C 19,4 C 0,0 C 76 % 1022,7 hPa 0,0 l/m 0,0 km/h (0 Bft) N-NO 22 11,9 C 16,1 C 0,0 km/h (0 Bft)
17.06.2019 06:16 16,1 C 16,9 C 19,4 C 0,0 C 76 % 1022,7 hPa 0,0 l/m 0,2 km/h (0 Bft) O-SO 112 11,9 C 16,1 C 0,0 km/h (0 Bft)
17.06.2019 06:14 16,1 C 16,9 C 19,4 C 0,0 C 76 % 1022,7 hPa 0,0 l/m 0,3 km/h (0 Bft) O-SO 112 11,9 C 16,1 C 0,0 km/h (0 Bft)
17.06.2019 06:12 16,1 C 16,8 C 19,4 C 0,0 C 76 % 1022,7 hPa 0,0 l/m 0,3 km/h (0 Bft) O-SO 112 11,9 C 16,1 C 0,0 km/h (0 Bft)
17.06.2019 06:10 16,2 C 16,7 C 19,4 C 0,0 C 76 % 1022,7 hPa 0,0 l/m 0,3 km/h (0 Bft) O-NO 67 12,0 C 16,2 C 1,9 km/h (1 Bft)
17.06.2019 06:08 16,0 C 16,8 C 19,4 C 0,0 C 76 % 1022,7 hPa 0,0 l/m 0,3 km/h (0 Bft) W 270 11,8 C 16,0 C 1,9 km/h (1 Bft)
17.06.2019 06:06 16,1 C 16,8 C 19,5 C 0,0 C 76 % 1022,7 hPa 0,0 l/m 0,3 km/h (0 Bft) NW 315 11,9 C 16,1 C 0,0 km/h (0 Bft)
17.06.2019 06:04 15,9 C 16,7 C 19,5 C 0,0 C 77 % 1022,9 hPa 0,0 l/m 0,0 km/h (0 Bft) N-NW 337 11,9 C 15,9 C 0,0 km/h (0 Bft)
17.06.2019 06:02 15,9 C 16,7 C 19,5 C 0,0 C 77 % 1022,9 hPa 0,0 l/m 0,0 km/h (0 Bft) N-NW 337 11,9 C 15,9 C 0,0 km/h (0 Bft)
17.06.2019 06:00 15,9 C 16,6 C 19,5 C 0,0 C 77 % 1022,9 hPa 0,0 l/m 0,0 km/h (0 Bft) NW 315 11,9 C 15,9 C 0,0 km/h (0 Bft)
17.06.2019 05:58 15,9 C 16,6 C 19,5 C 0,0 C 77 % 1022,9 hPa 0,0 l/m 0,0 km/h (0 Bft) N-NO 22 11,9 C 15,9 C 0,0 km/h (0 Bft)
17.06.2019 05:56 15,8 C 16,6 C 19,5 C 0,0 C 77 % 1022,9 hPa 0,0 l/m 0,0 km/h (0 Bft) NO 45 11,8 C 15,8 C 0,0 km/h (0 Bft)
17.06.2019 05:54 15,8 C 16,6 C 19,5 C 0,0 C 77 % 1022,9 hPa 0,0 l/m 0,0 km/h (0 Bft) N-NO 22 11,8 C 15,8 C 0,0 km/h (0 Bft)
17.06.2019 05:52 15,8 C 16,5 C 19,5 C 0,0 C 77 % 1022,9 hPa 0,0 l/m 0,0 km/h (0 Bft) NO 45 11,8 C 15,8 C 0,0 km/h (0 Bft)
17.06.2019 05:50 15,7 C 16,5 C 19,5 C 0,0 C 77 % 1022,9 hPa 0,0 l/m 0,0 km/h (0 Bft) N-NW 337 11,7 C 15,7 C 0,0 km/h (0 Bft)
17.06.2019 05:48 15,6 C 16,5 C 19,5 C 0,0 C 77 % 1022,9 hPa 0,0 l/m 0,0 km/h (0 Bft) W 270 11,6 C 15,6 C 0,0 km/h (0 Bft)
17.06.2019 05:46 15,6 C 16,5 C 19,5 C 0,0 C 77 % 1022,9 hPa 0,0 l/m 0,0 km/h (0 Bft) W-NW 292 11,6 C 15,6 C 0,0 km/h (0 Bft)
17.06.2019 05:44 15,6 C 16,4 C 19,5 C 0,0 C 77 % 1022,6 hPa 0,0 l/m 0,0 km/h (0 Bft) NW 315 11,6 C 15,6 C 0,0 km/h (0 Bft)
17.06.2019 05:42 15,6 C 16,3 C 19,5 C 0,0 C 76 % 1022,6 hPa 0,0 l/m 0,0 km/h (0 Bft) N-NW 337 11,4 C 15,6 C 0,0 km/h (0 Bft)
17.06.2019 05:40 15,6 C 16,3 C 19,5 C 0,0 C 76 % 1022,6 hPa 0,0 l/m 0,0 km/h (0 Bft) N 360 11,4 C 15,6 C 0,0 km/h (0 Bft)
17.06.2019 05:38 15,5 C 16,3 C 19,5 C 0,0 C 76 % 1022,6 hPa 0,0 l/m 0,0 km/h (0 Bft) N-NO 22 11,3 C 15,5 C 0,0 km/h (0 Bft)
17.06.2019 05:36 15,5 C 16,3 C 19,5 C 0,0 C 76 % 1022,6 hPa 0,0 l/m 0,0 km/h (0 Bft) NO 45 11,3 C 15,5 C 0,0 km/h (0 Bft)
17.06.2019 05:34 15,6 C 16,3 C 19,5 C 0,0 C 76 % 1022,6 hPa 0,0 l/m 0,0 km/h (0 Bft) O-NO 67 11,4 C 15,6 C 0,0 km/h (0 Bft)
17.06.2019 05:32 15,6 C 16,2 C 19,5 C 0,0 C 76 % 1022,6 hPa 0,0 l/m 0,0 km/h (0 Bft) N-NO 22 11,4 C 15,6 C 0,0 km/h (0 Bft)
17.06.2019 05:30 15,6 C 16,2 C 19,5 C 0,0 C 76 % 1022,6 hPa 0,0 l/m 0,0 km/h (0 Bft) O-NO 67 11,4 C 15,6 C 0,0 km/h (0 Bft)
17.06.2019 05:28 15,6 C 16,2 C 19,5 C 0,0 C 76 % 1022,6 hPa 0,0 l/m 0,0 km/h (0 Bft) NO 45 11,4 C 15,6 C 0,0 km/h (0 Bft)
17.06.2019 05:26 15,6 C 16,1 C 19,5 C 0,0 C 76 % 1022,6 hPa 0,0 l/m 0,0 km/h (0 Bft) N-NO 22 11,4 C 15,6 C 0,0 km/h (0 Bft)
17.06.2019 05:24 15,7 C 16,0 C 19,5 C 0,0 C 76 % 1022,8 hPa 0,0 l/m 0,0 km/h (0 Bft) NO 45 11,5 C 15,7 C 0,0 km/h (0 Bft)
17.06.2019 05:22 15,7 C 16,0 C 19,5 C 0,0 C 76 % 1022,8 hPa 0,0 l/m 0,0 km/h (0 Bft) NO 45 11,5 C 15,7 C 0,0 km/h (0 Bft)
17.06.2019 05:20 15,7 C 16,1 C 19,5 C 0,0 C 76 % 1022,8 hPa 0,0 l/m 0,0 km/h (0 Bft) NO 45 11,5 C 15,7 C 0,0 km/h (0 Bft)
17.06.2019 05:18 15,7 C 16,1 C 19,5 C 0,0 C 76 % 1022,8 hPa 0,0 l/m 0,0 km/h (0 Bft) N-NW 337 11,5 C 15,7 C 0,0 km/h (0 Bft)
17.06.2019 05:16 15,8 C 16,1 C 19,5 C 0,0 C 76 % 1022,8 hPa 0,0 l/m 0,0 km/h (0 Bft) NW 315 11,6 C 15,8 C 0,0 km/h (0 Bft)
17.06.2019 05:14 15,8 C 16,2 C 19,5 C 0,0 C 76 % 1022,8 hPa 0,0 l/m 0,0 km/h (0 Bft) W-SW 247 11,6 C 15,8 C 0,0 km/h (0 Bft)
17.06.2019 05:12 15,8 C 16,2 C 19,5 C 0,0 C 76 % 1022,8 hPa 0,0 l/m 0,0 km/h (0 Bft) SW 225 11,6 C 15,8 C 0,0 km/h (0 Bft)
17.06.2019 05:10 15,8 C 16,1 C 19,5 C 0,0 C 76 % 1022,8 hPa 0,0 l/m 0,0 km/h (0 Bft) W 270 11,6 C 15,8 C 0,0 km/h (0 Bft)
17.06.2019 05:08 15,8 C 16,1 C 19,5 C 0,0 C 76 % 1022,8 hPa 0,0 l/m 0,0 km/h (0 Bft) N-NW 337 11,6 C 15,8 C 0,0 km/h (0 Bft)
17.06.2019 05:06 15,9 C 16,0 C 19,5 C 0,0 C 76 % 1022,8 hPa 0,0 l/m 0,0 km/h (0 Bft) N-NW 337 11,7 C 15,9 C 0,0 km/h (0 Bft)
17.06.2019 05:04 15,9 C 16,1 C 19,5 C 0,0 C 76 % 1022,6 hPa 0,0 l/m 0,0 km/h (0 Bft) N-NO 22 11,7 C 15,9 C 0,0 km/h (0 Bft)
17.06.2019 05:02 15,9 C 16,0 C 19,5 C 0,0 C 75 % 1022,6 hPa 0,0 l/m 0,0 km/h (0 Bft) O-NO 67 11,5 C 15,9 C 0,0 km/h (0 Bft)
17.06.2019 05:00 16,0 C 16,0 C 19,5 C 0,0 C 74 % 1022,6 hPa 0,0 l/m 0,0 km/h (0 Bft) NO 45 11,4 C 16,0 C 0,0 km/h (0 Bft)
17.06.2019 04:58 16,0 C 16,1 C 19,5 C 0,0 C 74 % 1022,6 hPa 0,0 l/m 0,0 km/h (0 Bft) O-NO 67 11,4 C 16,0 C 0,0 km/h (0 Bft)
17.06.2019 04:56 16,1 C 16,1 C 19,5 C 0,0 C 74 % 1022,6 hPa 0,0 l/m 0,0 km/h (0 Bft) O-NO 67 11,5 C 16,1 C 0,0 km/h (0 Bft)
17.06.2019 04:54 16,1 C 16,2 C 19,5 C 0,0 C 74 % 1022,6 hPa 0,0 l/m 0,0 km/h (0 Bft) O-SO 112 11,5 C 16,1 C 0,0 km/h (0 Bft)
17.06.2019 04:52 16,1 C 16,3 C 19,5 C 0,0 C 74 % 1022,6 hPa 0,0 l/m 0,2 km/h (0 Bft) O-SO 112 11,5 C 16,1 C 0,0 km/h (0 Bft)
17.06.2019 04:50 16,2 C 16,2 C 19,5 C 0,0 C 74 % 1022,6 hPa 0,0 l/m 0,2 km/h (0 Bft) O-SO 112 11,6 C 16,2 C 0,0 km/h (0 Bft)
17.06.2019 04:48 16,2 C 16,3 C 19,5 C 0,0 C 74 % 1022,6 hPa 0,0 l/m 0,2 km/h (0 Bft) SO 135 11,6 C 16,2 C 0,0 km/h (0 Bft)
17.06.2019 04:46 16,3 C 16,3 C 19,5 C 0,0 C 74 % 1022,6 hPa 0,0 l/m 0,2 km/h (0 Bft) S-SW 202 11,7 C 16,3 C 0,0 km/h (0 Bft)
17.06.2019 04:44 16,3 C 16,4 C 19,5 C 0,0 C 74 % 1022,6 hPa 0,0 l/m 0,2 km/h (0 Bft) SW 225 11,7 C 16,3 C 2,1 km/h (1 Bft)
17.06.2019 04:42 16,3 C 16,4 C 19,5 C 0,0 C 74 % 1022,6 hPa 0,0 l/m 0,2 km/h (0 Bft) W 270 11,7 C 16,3 C 2,1 km/h (1 Bft)
17.06.2019 04:40 16,2 C 16,3 C 19,5 C 0,0 C 74 % 1022,6 hPa 0,0 l/m 0,0 km/h (0 Bft) N-NW 337 11,6 C 16,2 C 0,0 km/h (0 Bft)
17.06.2019 04:38 16,3 C 16,3 C 19,5 C 0,0 C 74 % 1022,6 hPa 0,0 l/m 0,0 km/h (0 Bft) N-NW 337 11,7 C 16,3 C 0,0 km/h (0 Bft)
17.06.2019 04:36 16,3 C 16,4 C 19,5 C 0,0 C 74 % 1022,6 hPa 0,0 l/m 0,0 km/h (0 Bft) N-NW 337 11,7 C 16,3 C 0,0 km/h (0 Bft)
17.06.2019 04:34 16,3 C 16,4 C 19,5 C 0,0 C 74 % 1022,6 hPa 0,0 l/m 0,0 km/h (0 Bft) SO 135 11,7 C 16,3 C 0,0 km/h (0 Bft)
17.06.2019 04:32 16,4 C 16,5 C 19,5 C 0,0 C 74 % 1022,6 hPa 0,0 l/m 0,0 km/h (0 Bft) SO 135 11,8 C 16,4 C 0,0 km/h (0 Bft)
17.06.2019 04:30 16,4 C 16,5 C 19,5 C 0,0 C 74 % 1022,6 hPa 0,0 l/m 0,0 km/h (0 Bft) SW 225 11,8 C 16,4 C 0,0 km/h (0 Bft)
17.06.2019 04:28 16,5 C 16,4 C 19,5 C 0,0 C 73 % 1022,6 hPa 0,0 l/m 0,0 km/h (0 Bft) O-SO 112 11,6 C 16,5 C 0,0 km/h (0 Bft)
17.06.2019 04:26 16,6 C 16,4 C 19,5 C 0,0 C 73 % 1022,6 hPa 0,0 l/m 0,0 km/h (0 Bft) O-NO 67 11,7 C 16,6 C 0,0 km/h (0 Bft)
17.06.2019 04:24 16,7 C 16,5 C 19,5 C 0,0 C 73 % 1022,2 hPa 0,0 l/m 0,0 km/h (0 Bft) O-NO 67 11,8 C 16,7 C 0,0 km/h (0 Bft)
17.06.2019 04:22 16,7 C 16,5 C 19,5 C 0,0 C 73 % 1022,2 hPa 0,0 l/m 0,0 km/h (0 Bft) O-NO 67 11,8 C 16,7 C 0,0 km/h (0 Bft)
17.06.2019 04:20 16,7 C 16,6 C 19,5 C 0,0 C 73 % 1022,2 hPa 0,0 l/m 0,0 km/h (0 Bft) O 90 11,8 C 16,7 C 0,0 km/h (0 Bft)
17.06.2019 04:18 16,8 C 16,7 C 19,5 C 0,0 C 73 % 1022,2 hPa 0,0 l/m 0,0 km/h (0 Bft) O-NO 67 11,9 C 16,8 C 0,0 km/h (0 Bft)
17.06.2019 04:16 16,9 C 16,8 C 19,5 C 0,0 C 73 % 1022,2 hPa 0,0 l/m 0,0 km/h (0 Bft) SW 225 12,0 C 16,9 C 0,0 km/h (0 Bft)
17.06.2019 04:14 16,9 C 16,8 C 19,6 C 0,0 C 73 % 1022,2 hPa 0,0 l/m 0,0 km/h (0 Bft) S 180 12,0 C 16,9 C 0,0 km/h (0 Bft)
17.06.2019 04:12 17,0 C 16,8 C 19,6 C 0,0 C 73 % 1022,2 hPa 0,0 l/m 0,0 km/h (0 Bft) SO 135 12,1 C 17,0 C 0,0 km/h (0 Bft)
17.06.2019 04:10 17,0 C 16,9 C 19,6 C 0,0 C 73 % 1022,2 hPa 0,0 l/m 0,0 km/h (0 Bft) NO 45 12,1 C 17,0 C 0,0 km/h (0 Bft)
17.06.2019 04:08 17,1 C 17,0 C 19,6 C 0,0 C 72 % 1022,2 hPa 0,0 l/m 0,0 km/h (0 Bft) O-SO 112 12,0 C 17,1 C 0,0 km/h (0 Bft)
17.06.2019 04:06 17,2 C 17,1 C 19,6 C 0,0 C 72 % 1022,2 hPa 0,0 l/m 0,0 km/h (0 Bft) O-SO 112 12,1 C 17,2 C 0,0 km/h (0 Bft)
17.06.2019 04:04 17,2 C 17,1 C 19,6 C 0,0 C 72 % 1022,4 hPa 0,0 l/m 0,0 km/h (0 Bft) S-SW 202 12,1 C 17,2 C 0,0 km/h (0 Bft)
17.06.2019 04:02 17,2 C 17,2 C 19,6 C 0,0 C 72 % 1022,4 hPa 0,0 l/m 0,0 km/h (0 Bft) S-SW 202 12,1 C 17,2 C 0,0 km/h (0 Bft)
17.06.2019 04:00 17,3 C 17,3 C 19,6 C 0,0 C 72 % 1022,4 hPa 0,0 l/m 0,0 km/h (0 Bft) SO 135 12,2 C 17,3 C 0,0 km/h (0 Bft)
17.06.2019 03:58 17,4 C 17,4 C 19,6 C 0,0 C 72 % 1022,4 hPa 0,0 l/m 0,0 km/h (0 Bft) SO 135 12,3 C 17,4 C 0,0 km/h (0 Bft)
17.06.2019 03:56 17,4 C 17,4 C 19,6 C 0,0 C 72 % 1022,4 hPa 0,0 l/m 0,0 km/h (0 Bft) SO 135 12,3 C 17,4 C 0,0 km/h (0 Bft)
17.06.2019 03:54 17,4 C 17,4 C 19,6 C 0,0 C 72 % 1022,4 hPa 0,0 l/m 0,0 km/h (0 Bft) N-NO 22 12,3 C 17,4 C 0,0 km/h (0 Bft)
17.06.2019 03:52 17,4 C 17,4 C 19,6 C 0,0 C 72 % 1022,4 hPa 0,0 l/m 0,0 km/h (0 Bft) N-NO 22 12,3 C 17,4 C 0,0 km/h (0 Bft)
17.06.2019 03:50 17,5 C 17,5 C 19,6 C 0,0 C 72 % 1022,4 hPa 0,0 l/m 0,0 km/h (0 Bft) O-NO 67 12,4 C 17,5 C 0,0 km/h (0 Bft)
17.06.2019 03:48 17,5 C 17,6 C 19,6 C 0,0 C 71 % 1022,4 hPa 0,0 l/m 0,0 km/h (0 Bft) O-SO 112 12,2 C 17,5 C 0,0 km/h (0 Bft)
17.06.2019 03:46 17,5 C 17,6 C 19,6 C 0,0 C 71 % 1022,4 hPa 0,0 l/m 0,0 km/h (0 Bft) O-SO 112 12,2 C 17,5 C 0,0 km/h (0 Bft)
17.06.2019 03:44 17,5 C 17,7 C 19,6 C 0,0 C 71 % 1022,4 hPa 0,0 l/m 0,0 km/h (0 Bft) O-NO 67 12,2 C 17,5 C 0,0 km/h (0 Bft)
17.06.2019 03:42 17,5 C 17,7 C 19,6 C 0,0 C 71 % 1022,4 hPa 0,0 l/m 0,0 km/h (0 Bft) N-NW 337 12,2 C 17,5 C 0,0 km/h (0 Bft)
17.06.2019 03:40 17,5 C 17,7 C 19,6 C 0,0 C 71 % 1022,4 hPa 0,0 l/m 0,0 km/h (0 Bft) O-SO 112 12,2 C 17,5 C 0,0 km/h (0 Bft)
17.06.2019 03:39 17,5 C 17,7 C 19,6 C 0,0 C 71 % 1022,4 hPa 0,0 l/m 0,0 km/h (0 Bft) O-SO 112 12,2 C 17,5 C 0,0 km/h (0 Bft)
17.06.2019 03:36 17,6 C 17,7 C 19,6 C 0,0 C 71 % 1022,4 hPa 0,0 l/m 0,2 km/h (0 Bft) SO 135 12,3 C 17,6 C 0,0 km/h (0 Bft)
17.06.2019 03:34 17,6 C 17,7 C 19,6 C 0,0 C 71 % 1022,4 hPa 0,0 l/m 0,2 km/h (0 Bft) O-NO 67 12,3 C 17,6 C 1,9 km/h (1 Bft)
17.06.2019 03:32 17,6 C 17,6 C 19,6 C 0,0 C 71 % 1022,4 hPa 0,0 l/m 0,2 km/h (0 Bft) N-NO 22 12,3 C 17,6 C 1,9 km/h (1 Bft)
17.06.2019 03:30 17,7 C 17,7 C 19,6 C 0,0 C 71 % 1022,4 hPa 0,0 l/m 0,3 km/h (0 Bft) O-NO 67 12,4 C 17,7 C 0,0 km/h (0 Bft)
17.06.2019 03:28 17,7 C 17,7 C 19,6 C 0,0 C 71 % 1022,4 hPa 0,0 l/m 0,6 km/h (0 Bft) NO 45 12,4 C 17,7 C 2,1 km/h (1 Bft)
17.06.2019 03:26 17,7 C 17,7 C 19,6 C 0,0 C 71 % 1022,4 hPa 0,0 l/m 0,6 km/h (0 Bft) N-NO 22 12,4 C 17,7 C 2,1 km/h (1 Bft)
17.06.2019 03:24 17,7 C 17,7 C 19,6 C 0,0 C 71 % 1022,5 hPa 0,0 l/m 0,8 km/h (0 Bft) NO 45 12,4 C 17,7 C 0,0 km/h (0 Bft)
17.06.2019 03:22 17,8 C 17,7 C 19,6 C 0,0 C 71 % 1022,5 hPa 0,0 l/m 0,8 km/h (0 Bft) N-NO 22 12,5 C 17,8 C 2,1 km/h (1 Bft)
17.06.2019 03:20 17,8 C 17,7 C 19,6 C 0,0 C 71 % 1022,5 hPa 0,0 l/m 1,0 km/h (0 Bft) O-NO 67 12,5 C 17,8 C 3,5 km/h (1 Bft)
17.06.2019 03:18 17,9 C 17,7 C 19,6 C 0,0 C 71 % 1022,5 hPa 0,0 l/m 1,0 km/h (0 Bft) NO 45 12,6 C 17,9 C 3,5 km/h (1 Bft)
17.06.2019 03:16 17,9 C 17,6 C 19,6 C 0,0 C 70 % 1022,5 hPa 0,0 l/m 0,8 km/h (0 Bft) N-NO 22 12,3 C 17,9 C 2,7 km/h (1 Bft)
17.06.2019 03:14 18,0 C 17,6 C 19,6 C 0,0 C 70 % 1022,5 hPa 0,0 l/m 1,3 km/h (1 Bft) NO 45 12,4 C 18,0 C 2,7 km/h (1 Bft)
17.06.2019 03:12 18,1 C 17,7 C 19,6 C 0,0 C 70 % 1022,5 hPa 0,0 l/m 1,1 km/h (1 Bft) O-NO 67 12,5 C 18,1 C 2,5 km/h (1 Bft)
17.06.2019 03:10 18,1 C 17,7 C 19,6 C 0,0 C 70 % 1022,5 hPa 0,0 l/m 1,1 km/h (1 Bft) O-SO 112 12,5 C 18,1 C 4,1 km/h (1 Bft)
17.06.2019 03:08 18,2 C 17,8 C 19,7 C 0,0 C 70 % 1022,5 hPa 0,0 l/m 1,0 km/h (0 Bft) O-NO 67 12,6 C 18,2 C 4,1 km/h (1 Bft)
17.06.2019 03:06 18,3 C 17,8 C 19,7 C 0,0 C 69 % 1022,5 hPa 0,0 l/m 0,6 km/h (0 Bft) N-NO 22 12,5 C 18,3 C 0,0 km/h (0 Bft)
17.06.2019 03:04 18,3 C 17,9 C 19,7 C 0,0 C 69 % 1022,6 hPa 0,0 l/m 0,0 km/h (0 Bft) N-NO 22 12,5 C 18,3 C 0,0 km/h (0 Bft)
17.06.2019 03:02 18,3 C 17,9 C 19,7 C 0,0 C 69 % 1022,6 hPa 0,0 l/m 0,0 km/h (0 Bft) N-NO 22 12,5 C 18,3 C 0,0 km/h (0 Bft)
17.06.2019 03:00 18,3 C 18,0 C 19,7 C 0,0 C 69 % 1022,6 hPa 0,0 l/m 0,0 km/h (0 Bft) N-NO 22 12,5 C 18,3 C 0,0 km/h (0 Bft)
17.06.2019 02:58 18,4 C 18,0 C 19,7 C 0,0 C 69 % 1022,6 hPa 0,0 l/m 0,0 km/h (0 Bft) N-NO 22 12,6 C 18,4 C 0,0 km/h (0 Bft)
17.06.2019 02:56 18,4 C 18,1 C 19,7 C 0,0 C 69 % 1022,6 hPa 0,0 l/m 0,0 km/h (0 Bft) N-NO 22 12,6 C 18,4 C 0,0 km/h (0 Bft)
17.06.2019 02:54 18,4 C 18,2 C 19,7 C 0,0 C 69 % 1022,6 hPa 0,0 l/m 0,0 km/h (0 Bft) SO 135 12,6 C 18,4 C 0,0 km/h (0 Bft)
17.06.2019 02:52 18,4 C 18,2 C 19,7 C 0,0 C 69 % 1022,6 hPa 0,0 l/m 0,0 km/h (0 Bft) O-SO 112 12,6 C 18,4 C 0,0 km/h (0 Bft)
17.06.2019 02:50 18,4 C 18,3 C 19,7 C 0,0 C 69 % 1022,6 hPa 0,0 l/m 0,0 km/h (0 Bft) NO 45 12,6 C 18,4 C 0,0 km/h (0 Bft)
17.06.2019 02:48 18,4 C 18,3 C 19,7 C 0,0 C 69 % 1022,6 hPa 0,0 l/m 0,0 km/h (0 Bft) S-SW 202 12,6 C 18,4 C 0,0 km/h (0 Bft)
17.06.2019 02:46 18,4 C 18,3 C 19,7 C 0,0 C 69 % 1022,6 hPa 0,0 l/m 0,0 km/h (0 Bft) S-SO 157 12,6 C 18,4 C 0,0 km/h (0 Bft)
17.06.2019 02:44 18,4 C 18,2 C 19,7 C 0,0 C 69 % 1022,8 hPa 0,0 l/m 0,0 km/h (0 Bft) N-NO 22 12,6 C 18,4 C 0,0 km/h (0 Bft)
17.06.2019 02:42 18,5 C 18,3 C 19,7 C 0,0 C 69 % 1022,8 hPa 0,0 l/m 0,2 km/h (0 Bft) O-NO 67 12,7 C 18,5 C 0,0 km/h (0 Bft)
17.06.2019 02:40 18,5 C 18,3 C 19,7 C 0,0 C 69 % 1022,8 hPa 0,0 l/m 0,3 km/h (0 Bft) S-SO 157 12,7 C 18,5 C 0,0 km/h (0 Bft)
17.06.2019 02:38 18,5 C 18,3 C 19,7 C 0,0 C 68 % 1022,8 hPa 0,0 l/m 1,0 km/h (0 Bft) O-NO 67 12,5 C 18,5 C 0,0 km/h (0 Bft)
17.06.2019 02:36 18,6 C 18,4 C 19,7 C 0,0 C 68 % 1022,8 hPa 0,0 l/m 1,1 km/h (1 Bft) NO 45 12,6 C 18,6 C 1,9 km/h (1 Bft)
17.06.2019 02:34 18,6 C 18,4 C 19,7 C 0,0 C 68 % 1022,8 hPa 0,0 l/m 1,3 km/h (1 Bft) N-NO 22 12,6 C 18,6 C 2,9 km/h (1 Bft)
17.06.2019 02:32 18,6 C 18,4 C 19,7 C 0,0 C 68 % 1022,8 hPa 0,0 l/m 1,3 km/h (1 Bft) O-NO 67 12,6 C 18,6 C 2,9 km/h (1 Bft)
17.06.2019 02:30 18,7 C 18,4 C 19,7 C 0,0 C 68 % 1022,8 hPa 0,0 l/m 1,6 km/h (1 Bft) N-NO 22 12,7 C 18,7 C 7,7 km/h (2 Bft)
17.06.2019 02:28 18,7 C 18,4 C 19,7 C 0,0 C 68 % 1022,8 hPa 0,0 l/m 1,4 km/h (1 Bft) W 270 12,7 C 18,7 C 7,7 km/h (2 Bft)
17.06.2019 02:26 18,7 C 18,4 C 19,7 C 0,0 C 68 % 1022,8 hPa 0,0 l/m 1,1 km/h (1 Bft) O-NO 67 12,7 C 18,7 C 2,3 km/h (1 Bft)
17.06.2019 02:24 18,8 C 18,4 C 19,7 C 0,0 C 68 % 1022,7 hPa 0,0 l/m 1,3 km/h (1 Bft) N-NW 337 12,8 C 18,8 C 2,3 km/h (1 Bft)
17.06.2019 02:22 18,8 C 18,5 C 19,7 C 0,0 C 68 % 1022,7 hPa 0,0 l/m 1,4 km/h (1 Bft) N-NW 337 12,8 C 18,8 C 3,5 km/h (1 Bft)
17.06.2019 02:20 18,9 C 18,6 C 19,7 C 0,0 C 68 % 1022,7 hPa 0,0 l/m 1,3 km/h (1 Bft) NW 315 12,9 C 18,9 C 3,5 km/h (1 Bft)
17.06.2019 02:18 18,9 C 18,7 C 19,7 C 0,0 C 68 % 1022,7 hPa 0,0 l/m 1,3 km/h (1 Bft) NW 315 12,9 C 18,9 C 1,9 km/h (1 Bft)
17.06.2019 02:16 18,9 C 18,7 C 19,7 C 0,0 C 68 % 1022,7 hPa 0,0 l/m 1,4 km/h (1 Bft) NW 315 12,9 C 18,9 C 4,1 km/h (1 Bft)
17.06.2019 02:14 18,9 C 18,8 C 19,7 C 0,0 C 68 % 1022,7 hPa 0,0 l/m 1,9 km/h (1 Bft) W-NW 292 12,9 C 18,9 C 4,1 km/h (1 Bft)
17.06.2019 02:12 18,9 C 18,8 C 19,7 C 0,0 C 68 % 1022,7 hPa 0,0 l/m 1,6 km/h (1 Bft) N-NW 337 12,9 C 18,9 C 2,3 km/h (1 Bft)
17.06.2019 02:10 18,9 C 18,8 C 19,7 C 0,0 C 68 % 1022,7 hPa 0,0 l/m 1,8 km/h (1 Bft) W-SW 247 12,9 C 18,9 C 2,3 km/h (1 Bft)
17.06.2019 02:09 18,9 C 18,8 C 19,7 C 0,0 C 68 % 1022,7 hPa 0,0 l/m 1,8 km/h (1 Bft) W-SW 247 12,9 C 18,9 C 2,3 km/h (1 Bft)
17.06.2019 02:06 19,0 C 18,8 C 19,7 C 0,0 C 68 % 1022,7 hPa 0,0 l/m 1,3 km/h (1 Bft) W 270 13,0 C 19,0 C 4,1 km/h (1 Bft)
17.06.2019 02:04 19,0 C 18,7 C 19,7 C 0,0 C 67 % 1022,6 hPa 0,0 l/m 1,0 km/h (0 Bft) W 270 12,7 C 19,0 C 4,1 km/h (1 Bft)
17.06.2019 02:02 19,0 C 18,7 C 19,7 C 0,0 C 67 % 1022,6 hPa 0,0 l/m 1,0 km/h (0 Bft) S-SO 157 12,7 C 19,0 C 2,1 km/h (1 Bft)
17.06.2019 02:00 19,0 C 18,7 C 19,7 C 0,0 C 67 % 1022,6 hPa 0,0 l/m 0,8 km/h (0 Bft) W-SW 247 12,7 C 19,0 C 1,9 km/h (1 Bft)
17.06.2019 01:58 19,0 C 18,7 C 19,7 C 0,0 C 67 % 1022,6 hPa 0,0 l/m 1,0 km/h (0 Bft) W 270 12,7 C 19,0 C 0,0 km/h (0 Bft)
17.06.2019 01:56 19,0 C 18,7 C 19,7 C 0,0 C 67 % 1022,6 hPa 0,0 l/m 1,3 km/h (1 Bft) N-NW 337 12,7 C 19,0 C 2,1 km/h (1 Bft)
17.06.2019 01:54 19,0 C 18,7 C 19,7 C 0,0 C 67 % 1022,6 hPa 0,0 l/m 1,3 km/h (1 Bft) SO 135 12,7 C 19,0 C 2,1 km/h (1 Bft)
17.06.2019 01:52 19,1 C 18,8 C 19,7 C 0,0 C 67 % 1022,6 hPa 0,0 l/m 1,0 km/h (0 Bft) NW 315 12,8 C 19,1 C 2,1 km/h (1 Bft)
17.06.2019 01:50 19,1 C 18,8 C 19,7 C 0,0 C 67 % 1022,6 hPa 0,0 l/m 0,6 km/h (0 Bft) N 360 12,8 C 19,1 C 3,1 km/h (1 Bft)
17.06.2019 01:48 19,1 C 18,7 C 19,8 C 0,0 C 67 % 1022,6 hPa 0,0 l/m 0,6 km/h (0 Bft) NW 315 12,8 C 19,1 C 3,3 km/h (1 Bft)
17.06.2019 01:46 19,1 C 18,7 C 19,8 C 0,0 C 67 % 1022,6 hPa 0,0 l/m 0,3 km/h (0 Bft) NW 315 12,8 C 19,1 C 3,3 km/h (1 Bft)
17.06.2019 01:44 19,1 C 18,7 C 19,8 C 0,0 C 67 % 1022,2 hPa 0,0 l/m 0,2 km/h (0 Bft) N-NO 22 12,8 C 19,1 C 0,0 km/h (0 Bft)
17.06.2019 01:42 19,1 C 19,0 C 19,8 C 0,0 C 67 % 1022,2 hPa 0,0 l/m 0,3 km/h (0 Bft) W-SW 247 12,8 C 19,1 C 0,0 km/h (0 Bft)
17.06.2019 01:40 19,2 C 19,0 C 19,8 C 0,0 C 67 % 1022,2 hPa 0,0 l/m 0,5 km/h (0 Bft) W-SW 247 12,9 C 19,2 C 2,1 km/h (1 Bft)
17.06.2019 01:38 19,2 C 18,9 C 19,8 C 0,0 C 67 % 1022,2 hPa 0,0 l/m 1,0 km/h (0 Bft) S-SO 157 12,9 C 19,2 C 2,1 km/h (1 Bft)
17.06.2019 01:36 19,2 C 18,9 C 19,8 C 0,0 C 67 % 1022,2 hPa 0,0 l/m 1,6 km/h (1 Bft) N-NW 337 12,9 C 19,2 C 2,5 km/h (1 Bft)
17.06.2019 01:34 19,2 C 19,0 C 19,8 C 0,0 C 67 % 1022,2 hPa 0,0 l/m 2,4 km/h (1 Bft) O-SO 112 12,9 C 19,2 C 2,5 km/h (1 Bft)
17.06.2019 01:32 19,2 C 19,0 C 19,8 C 0,0 C 67 % 1022,2 hPa 0,0 l/m 3,2 km/h (1 Bft) S-SO 157 12,9 C 19,2 C 3,5 km/h (1 Bft)
17.06.2019 01:30 19,2 C 19,0 C 19,8 C 0,0 C 67 % 1022,2 hPa 0,0 l/m 4,2 km/h (1 Bft) W 270 12,9 C 19,2 C 4,4 km/h (1 Bft)
17.06.2019 01:28 19,2 C 19,1 C 19,7 C 0,0 C 67 % 1022,2 hPa 0,0 l/m 5,3 km/h (1 Bft) SW 225 12,9 C 19,2 C 7,9 km/h (2 Bft)
17.06.2019 01:26 19,2 C 19,1 C 19,7 C 0,0 C 67 % 1022,2 hPa 0,0 l/m 5,6 km/h (1 Bft) W-SW 247 12,9 C 19,2 C 7,9 km/h (2 Bft)
17.06.2019 01:24 19,2 C 19,1 C 19,7 C 0,0 C 67 % 1022,7 hPa 0,0 l/m 5,3 km/h (1 Bft) W-SW 247 12,9 C 19,2 C 9,7 km/h (2 Bft)
17.06.2019 01:22 19,3 C 19,1 C 19,7 C 0,0 C 67 % 1022,7 hPa 0,0 l/m 5,3 km/h (1 Bft) W-NW 292 13,0 C 19,3 C 9,7 km/h (2 Bft)
17.06.2019 01:20 19,3 C 19,1 C 19,7 C 0,0 C 67 % 1022,7 hPa 0,0 l/m 5,5 km/h (1 Bft) SW 225 13,0 C 19,3 C 9,3 km/h (2 Bft)
17.06.2019 01:18 19,3 C 19,2 C 19,7 C 0,0 C 67 % 1022,7 hPa 0,0 l/m 4,8 km/h (1 Bft) W-SW 247 13,0 C 19,3 C 8,1 km/h (2 Bft)
17.06.2019 01:16 19,3 C 19,2 C 19,7 C 0,0 C 67 % 1022,7 hPa 0,0 l/m 4,3 km/h (1 Bft) W-SW 247 13,0 C 19,3 C 15,1 km/h (3 Bft)
17.06.2019 01:14 19,3 C 19,1 C 19,7 C 0,0 C 66 % 1022,7 hPa 0,0 l/m 4,3 km/h (1 Bft) S 180 12,8 C 19,3 C 5,8 km/h (2 Bft)
17.06.2019 01:12 19,3 C 19,1 C 19,7 C 0,0 C 66 % 1022,7 hPa 0,0 l/m 3,5 km/h (1 Bft) SW 225 12,8 C 19,3 C 7,1 km/h (2 Bft)
17.06.2019 01:10 19,3 C 19,1 C 19,7 C 0,0 C 66 % 1022,7 hPa 0,0 l/m 3,1 km/h (1 Bft) SW 225 12,8 C 19,3 C 7,1 km/h (2 Bft)
17.06.2019 01:08 19,3 C 19,1 C 19,7 C 0,0 C 66 % 1022,7 hPa 0,0 l/m 1,9 km/h (1 Bft) W-SW 247 12,8 C 19,3 C 2,9 km/h (1 Bft)
17.06.2019 01:06 19,3 C 19,1 C 19,7 C 0,0 C 66 % 1022,7 hPa 0,0 l/m 1,9 km/h (1 Bft) W-SW 247 12,8 C 19,3 C 2,9 km/h (1 Bft)
17.06.2019 01:04 19,3 C 19,1 C 19,7 C 0,0 C 66 % 1022,6 hPa 0,0 l/m 2,1 km/h (1 Bft) W 270 12,8 C 19,3 C 2,9 km/h (1 Bft)
17.06.2019 01:02 19,3 C 19,1 C 19,7 C 0,0 C 66 % 1022,6 hPa 0,0 l/m 2,1 km/h (1 Bft) NW 315 12,8 C 19,3 C 0,0 km/h (0 Bft)
17.06.2019 01:00 19,3 C 19,1 C 19,7 C 0,0 C 66 % 1022,6 hPa 0,0 l/m 2,9 km/h (1 Bft) N-NW 337 12,8 C 19,3 C 0,0 km/h (0 Bft)
17.06.2019 00:58 19,3 C 19,2 C 19,7 C 0,0 C 66 % 1022,6 hPa 0,0 l/m 3,7 km/h (1 Bft) W 270 12,8 C 19,3 C 6,8 km/h (2 Bft)
17.06.2019 00:56 19,4 C 19,2 C 19,7 C 0,0 C 66 % 1022,6 hPa 0,0 l/m 3,7 km/h (1 Bft) W 270 12,9 C 19,4 C 13,9 km/h (3 Bft)
17.06.2019 00:54 19,4 C 19,2 C 19,7 C 0,0 C 66 % 1022,6 hPa 0,0 l/m 3,4 km/h (1 Bft) N-NW 337 12,9 C 19,4 C 5,6 km/h (1 Bft)
17.06.2019 00:52 19,4 C 19,2 C 19,8 C 0,0 C 66 % 1022,6 hPa 0,0 l/m 3,5 km/h (1 Bft) NW 315 12,9 C 19,4 C 7,0 km/h (2 Bft)
17.06.2019 00:50 19,4 C 19,2 C 19,8 C 0,0 C 66 % 1022,6 hPa 0,0 l/m 3,4 km/h (1 Bft) W-NW 292 12,9 C 19,4 C 7,3 km/h (2 Bft)
17.06.2019 00:48 19,4 C 19,2 C 19,8 C 0,0 C 66 % 1022,6 hPa 0,0 l/m 2,6 km/h (1 Bft) W-SW 247 12,9 C 19,4 C 7,3 km/h (2 Bft)
17.06.2019 00:46 19,4 C 19,2 C 19,8 C 0,0 C 66 % 1022,6 hPa 0,0 l/m 1,9 km/h (1 Bft) W 270 12,9 C 19,4 C 4,1 km/h (1 Bft)
17.06.2019 00:44 19,4 C 19,2 C 19,8 C 0,0 C 66 % 1022,8 hPa 0,0 l/m 1,6 km/h (1 Bft) NW 315 12,9 C 19,4 C 4,1 km/h (1 Bft)
17.06.2019 00:42 19,4 C 19,2 C 19,8 C 0,0 C 66 % 1022,8 hPa 0,0 l/m 1,3 km/h (1 Bft) NW 315 12,9 C 19,4 C 4,1 km/h (1 Bft)
17.06.2019 00:40 19,4 C 19,2 C 19,8 C 0,0 C 66 % 1022,8 hPa 0,0 l/m 0,8 km/h (0 Bft) W 270 12,9 C 19,4 C 2,3 km/h (1 Bft)
17.06.2019 00:38 19,5 C 19,3 C 19,8 C 0,0 C 66 % 1022,8 hPa 0,0 l/m 1,6 km/h (1 Bft) N-NO 22 13,0 C 19,5 C 3,1 km/h (1 Bft)
17.06.2019 00:36 19,5 C 19,3 C 19,8 C 0,0 C 66 % 1022,8 hPa 0,0 l/m 2,3 km/h (1 Bft) NW 315 13,0 C 19,5 C 12,7 km/h (3 Bft)
17.06.2019 00:34 19,5 C 19,3 C 19,8 C 0,0 C 66 % 1022,8 hPa 0,0 l/m 2,6 km/h (1 Bft) W 270 13,0 C 19,5 C 3,7 km/h (1 Bft)
17.06.2019 00:32 19,5 C 19,3 C 19,8 C 0,0 C 66 % 1022,8 hPa 0,0 l/m 3,1 km/h (1 Bft) NW 315 13,0 C 19,5 C 1,9 km/h (1 Bft)
17.06.2019 00:30 19,5 C 19,3 C 19,8 C 0,0 C 66 % 1022,8 hPa 0,0 l/m 3,4 km/h (1 Bft) NW 315 13,0 C 19,5 C 9,8 km/h (2 Bft)
17.06.2019 00:28 19,5 C 19,3 C 19,8 C 0,0 C 66 % 1022,8 hPa 0,0 l/m 3,9 km/h (1 Bft) W 270 13,0 C 19,5 C 10,8 km/h (2 Bft)
17.06.2019 00:26 19,5 C 19,3 C 19,8 C 0,0 C 66 % 1022,8 hPa 0,0 l/m 3,4 km/h (1 Bft) W-NW 292 13,0 C 19,5 C 10,8 km/h (2 Bft)
17.06.2019 00:24 19,5 C 19,3 C 19,8 C 0,0 C 66 % 1023,0 hPa 0,0 l/m 2,9 km/h (1 Bft) NW 315 13,0 C 19,5 C 6,4 km/h (2 Bft)
17.06.2019 00:22 19,5 C 19,4 C 19,8 C 0,0 C 66 % 1023,0 hPa 0,0 l/m 3,5 km/h (1 Bft) W-NW 292 13,0 C 19,5 C 6,8 km/h (2 Bft)
17.06.2019 00:20 19,5 C 19,3 C 19,8 C 0,0 C 66 % 1023,0 hPa 0,0 l/m 3,4 km/h (1 Bft) S-SO 157 13,0 C 19,5 C 6,8 km/h (2 Bft)
17.06.2019 00:18 19,5 C 19,3 C 19,8 C 0,0 C 66 % 1023,0 hPa 0,0 l/m 3,5 km/h (1 Bft) O-NO 67 13,0 C 19,5 C 6,4 km/h (2 Bft)
17.06.2019 00:16 19,5 C 19,3 C 19,8 C 0,0 C 66 % 1023,0 hPa 0,0 l/m 2,9 km/h (1 Bft) SW 225 13,0 C 19,5 C 8,1 km/h (2 Bft)
17.06.2019 00:14 19,5 C 19,4 C 19,8 C 0,0 C 66 % 1023,0 hPa 0,0 l/m 2,9 km/h (1 Bft) W 270 13,0 C 19,5 C 5,8 km/h (2 Bft)
17.06.2019 00:12 19,6 C 19,4 C 19,8 C 0,0 C 66 % 1023,0 hPa 0,0 l/m 2,6 km/h (1 Bft) SW 225 13,1 C 19,6 C 6,2 km/h (2 Bft)
17.06.2019 00:10 19,6 C 19,4 C 19,8 C 0,0 C 66 % 1023,0 hPa 0,0 l/m 2,7 km/h (1 Bft) W-SW 247 13,1 C 19,6 C 7,3 km/h (2 Bft)
17.06.2019 00:08 19,6 C 19,5 C 19,8 C 0,0 C 66 % 1023,0 hPa 0,0 l/m 2,6 km/h (1 Bft) W-NW 292 13,1 C 19,6 C 7,3 km/h (2 Bft)
17.06.2019 00:06 19,6 C 19,5 C 19,8 C 0,0 C 66 % 1023,0 hPa 0,0 l/m 2,6 km/h (1 Bft) SW 225 13,1 C 19,6 C 3,5 km/h (1 Bft)
17.06.2019 00:04 19,6 C 19,4 C 19,8 C 0,0 C 66 % 1022,9 hPa 0,0 l/m 3,1 km/h (1 Bft) S-SW 202 13,1 C 19,6 C 7,0 km/h (2 Bft)
17.06.2019 00:02 19,6 C 19,4 C 19,8 C 0,0 C 66 % 1022,9 hPa 0,0 l/m 3,2 km/h (1 Bft) NW 315 13,1 C 19,6 C 7,0 km/h (2 Bft)
17.06.2019 00:00 19,6 C 19,5 C 19,9 C 0,0 C 66 % 1022,9 hPa 0,0 l/m 2,7 km/h (1 Bft) W-SW 247 13,1 C 19,6 C 5,4 km/h (1 Bft)
_ Min-Zeit 05:36 05:00 09:30 00:00 15:26 19:06 - 02:44 - - 05:36 05:36 01:00
Minimum _ 15,5 C 16,0 C 19,2 C 0,0 C 53 % 1020,2 hPa - 0,0 km/h (0 Bft) - - 11,3 C 15,5 C 0,0 km/h (0 Bft)
_ Max-Zeit 16:52 18:00 16:16 00:00 05:44 00:06 00:00 15:06 - - 14:04 18:04 15:06
Maximum _ 25,4 C 31,5 C 20,6 C 0,0 C 77 % 1023,0 hPa 0,0 l/m 16,6 km/h
N-NW (3 Bft)
- - 15,6 C 25,4 C 38,8 km/h
N-NW (5 Bft)
Durchschnitt _ 21,1 C 22,2 C 19,8 C 0,0 C 63 % 1022,1 hPa #0,0 l/m 3,7 km/h (1 Bft) N-NO - 13,7 C 21,0 C 7,0 km/h (2 Bft)